Observation data for Clyde on 11/19/2019      Previous  Date       Current Mesonet Observations  Soil Data  Daily Summary Page  Observations in Plain Language
KCL2 190600Z 18008KT 14/03 A2996 RMK A01 T01370027  RH  047%=      5-min Rain = 0
KCL2 190601Z 18008KT 14/03 A2996 RMK A01 T01360027  RH  048%=      5-min Rain = 0
KCL2 190602Z 18008KT 14/03 A2996 RMK A01 T01360027  RH  048%=      5-min Rain = 0
KCL2 190603Z 18009KT 14/03 A2996 RMK A01 T01360027  RH  048%=      5-min Rain = 0
KCL2 190604Z 18008KT 14/03 A2996 RMK A01 T01350027  RH  048%=      5-min Rain = 0
KCL2 190605Z 19008KT 14/03 A2996 RMK A01 T01350027  RH  048%=      5-min Rain = 0
KCL2 190606Z 19009KT 13/03 A2995 RMK A01 T01340027  RH  048%=      5-min Rain = 0
KCL2 190607Z 19009KT 13/03 A2995 RMK A01 T01330026  RH  048%=      5-min Rain = 0
KCL2 190608Z 19008KT 13/03 A2995 RMK A01 T01340027  RH  048%=      5-min Rain = 0
KCL2 190609Z 19008KT 13/03 A2995 RMK A01 T01340027  RH  048%=      5-min Rain = 0
KCL2 190610Z 18008KT 13/03 A2995 RMK A01 T01340027  RH  048%=      5-min Rain = 0
KCL2 190611Z 18008KT 13/03 A2995 RMK A01 T01340027  RH  048%=      5-min Rain = 0
KCL2 190612Z 18007KT 13/03 A2996 RMK A01 T01340027  RH  048%=      5-min Rain = 0
KCL2 190613Z 18007KT 13/03 A2996 RMK A01 T01340027  RH  048%=      5-min Rain = 0
KCL2 190614Z 18007KT 13/03 A2996 RMK A01 T01340027  RH  048%=      5-min Rain = 0
KCL2 190615Z 18007KT 13/03 A2996 RMK A01 T01330027  RH  048%=      5-min Rain = 0
KCL2 190616Z 19007KT 13/03 A2996 RMK A01 T01330027  RH  048%=      5-min Rain = 0
KCL2 190617Z 19007KT 13/03 A2996 RMK A01 T01340026  RH  048%=      5-min Rain = 0
KCL2 190618Z 19006KT 13/03 A2996 RMK A01 T01330026  RH  048%=      5-min Rain = 0
KCL2 190619Z 19007KT 13/03 A2996 RMK A01 T01330026  RH  048%=      5-min Rain = 0
KCL2 190620Z 19007KT 13/03 A2996 RMK A01 T01330026  RH  048%=      5-min Rain = 0
KCL2 190621Z 19007KT 13/03 A2996 RMK A01 T01330027  RH  049%=      5-min Rain = 0
KCL2 190622Z 19007KT 13/03 A2996 RMK A01 T01320026  RH  049%=      5-min Rain = 0
KCL2 190623Z 19008KT 13/03 A2996 RMK A01 T01320027  RH  049%=      5-min Rain = 0
KCL2 190624Z 19008KT 13/03 A2996 RMK A01 T01320026  RH  049%=      5-min Rain = 0
KCL2 190625Z 19008KT 13/03 A2996 RMK A01 T01320027  RH  049%=      5-min Rain = 0
KCL2 190626Z 19008KT 13/03 A2996 RMK A01 T01320027  RH  049%=      5-min Rain = 0
KCL2 190627Z 19008KT 13/03 A2996 RMK A01 T01340028  RH  049%=      5-min Rain = 0
KCL2 190628Z 19008KT 13/03 A2996 RMK A01 T01340028  RH  049%=      5-min Rain = 0
KCL2 190629Z 19009KT 13/03 A2996 RMK A01 T01340028  RH  049%=      5-min Rain = 0
KCL2 190630Z 19008KT 13/03 A2996 RMK A01 T01340028  RH  049%=      5-min Rain = 0
KCL2 190631Z 19008KT 13/03 A2996 RMK A01 T01330028  RH  049%=      5-min Rain = 0
KCL2 190632Z 19008KT 13/03 A2996 RMK A01 T01340028  RH  049%=      5-min Rain = 0
KCL2 190633Z 19007KT 13/03 A2996 RMK A01 T01340028  RH  049%=      5-min Rain = 0
KCL2 190634Z 19008KT 13/03 A2996 RMK A01 T01340028  RH  048%=      5-min Rain = 0
KCL2 190635Z 19008KT 13/03 A2996 RMK A01 T01340028  RH  048%=      5-min Rain = 0
KCL2 190636Z 19008KT 13/03 A2996 RMK A01 T01340028  RH  049%=      5-min Rain = 0
KCL2 190637Z 19008KT 13/03 A2996 RMK A01 T01340028  RH  049%=      5-min Rain = 0
KCL2 190638Z 20007KT 13/03 A2996 RMK A01 T01340028  RH  049%=      5-min Rain = 0
KCL2 190639Z 20007KT 13/03 A2996 RMK A01 T01340028  RH  049%=      5-min Rain = 0
KCL2 190640Z 19007KT 13/03 A2996 RMK A01 T01340028  RH  049%=      5-min Rain = 0
KCL2 190641Z 19007KT 13/03 A2996 RMK A01 T01340028  RH  049%=      5-min Rain = 0
KCL2 190642Z 19007KT 13/03 A2996 RMK A01 T01330028  RH  049%=      5-min Rain = 0
KCL2 190643Z 19007KT 13/03 A2996 RMK A01 T01330028  RH  049%=      5-min Rain = 0
KCL2 190644Z 19007KT 13/03 A2996 RMK A01 T01330028  RH  049%=      5-min Rain = 0
KCL2 190645Z 20006KT 13/03 A2996 RMK A01 T01330028  RH  049%=      5-min Rain = 0
KCL2 190646Z 20006KT 13/03 A2996 RMK A01 T01320028  RH  049%=      5-min Rain = 0
KCL2 190647Z 20007KT 13/03 A2996 RMK A01 T01310028  RH  049%=      5-min Rain = 0
KCL2 190648Z 20006KT 13/03 A2996 RMK A01 T01310028  RH  050%=      5-min Rain = 0
KCL2 190649Z 19006KT 13/03 A2996 RMK A01 T01310028  RH  050%=      5-min Rain = 0
KCL2 190650Z 19006KT 13/03 A2996 RMK A01 T01300028  RH  050%=      5-min Rain = 0
KCL2 190651Z 19007KT 13/03 A2996 RMK A01 T01290028  RH  050%=      5-min Rain = 0
KCL2 190652Z 19006KT 13/03 A2996 RMK A01 T01290027  RH  050%=      5-min Rain = 0
KCL2 190653Z 19007KT 13/03 A2996 RMK A01 T01280027  RH  050%=      5-min Rain = 0
KCL2 190654Z 19007KT 13/03 A2996 RMK A01 T01270027  RH  051%=      5-min Rain = 0
KCL2 190655Z 19006KT 13/03 A2996 RMK A01 T01270028  RH  051%=      5-min Rain = 0
KCL2 190656Z 19006KT 13/03 A2996 RMK A01 T01270027  RH  051%=      5-min Rain = 0
KCL2 190657Z 19007KT 13/03 A2996 RMK A01 T01260027  RH  051%=      5-min Rain = 0
KCL2 190658Z 20007KT 13/03 A2996 RMK A01 T01260027  RH  051%=      5-min Rain = 0
KCL2 190659Z 20007KT 13/03 A2996 RMK A01 T01260027  RH  051%=      5-min Rain = 0
KCL2 190700Z 20006KT 13/03 A2996 RMK A01 T01260027  RH  051%=      5-min Rain = 0
KCL2 190701Z 20007KT 13/03 A2996 RMK A01 T01260027  RH  051%=      5-min Rain = 0
KCL2 190702Z 20007KT 13/03 A2996 RMK A01 T01260028  RH  051%=      5-min Rain = 0
KCL2 190703Z 20007KT 13/03 A2996 RMK A01 T01260027  RH  051%=      5-min Rain = 0
KCL2 190704Z 20007KT 13/03 A2996 RMK A01 T01260027  RH  051%=      5-min Rain = 0
KCL2 190705Z 20007KT 13/03 A2996 RMK A01 T01260027  RH  051%=      5-min Rain = 0
KCL2 190706Z 20007KT 13/03 A2996 RMK A01 T01260028  RH  051%=      5-min Rain = 0
KCL2 190707Z 20007KT 13/03 A2996 RMK A01 T01250028  RH  052%=      5-min Rain = 0
KCL2 190708Z 19007KT 13/03 A2996 RMK A01 T01250028  RH  052%=      5-min Rain = 0
KCL2 190709Z 19007KT 12/03 A2996 RMK A01 T01240028  RH  052%=      5-min Rain = 0
KCL2 190710Z 19007KT 13/03 A2995 RMK A01 T01250028  RH  052%=      5-min Rain = 0
KCL2 190711Z 19007KT 13/03 A2996 RMK A01 T01250028  RH  052%=      5-min Rain = 0
KCL2 190712Z 19007KT 12/03 A2996 RMK A01 T01240028  RH  052%=      5-min Rain = 0
KCL2 190713Z 19008KT 12/03 A2996 RMK A01 T01240029  RH  052%=      5-min Rain = 0
KCL2 190714Z 19008KT 13/03 A2995 RMK A01 T01250029  RH  052%=      5-min Rain = 0
KCL2 190715Z 19007KT 13/03 A2995 RMK A01 T01250029  RH  052%=      5-min Rain = 0
KCL2 190716Z 19007KT 13/03 A2995 RMK A01 T01250030  RH  052%=      5-min Rain = 0
KCL2 190717Z 19007KT 13/03 A2995 RMK A01 T01270031  RH  052%=      5-min Rain = 0
KCL2 190718Z 19007KT 13/03 A2995 RMK A01 T01290031  RH  051%=      5-min Rain = 0
KCL2 190719Z 19007KT 13/03 A2995 RMK A01 T01300031  RH  051%=      5-min Rain = 0
KCL2 190720Z 19008KT 13/03 A2995 RMK A01 T01300031  RH  051%=      5-min Rain = 0
KCL2 190721Z 19008KT 13/03 A2995 RMK A01 T01290030  RH  051%=      5-min Rain = 0
KCL2 190722Z 19008KT 13/03 A2995 RMK A01 T01280030  RH  051%=      5-min Rain = 0
KCL2 190723Z 19008KT 13/03 A2995 RMK A01 T01270030  RH  052%=      5-min Rain = 0
KCL2 190724Z 19008KT 13/03 A2995 RMK A01 T01280031  RH  052%=      5-min Rain = 0
KCL2 190725Z 19007KT 13/03 A2995 RMK A01 T01270030  RH  052%=      5-min Rain = 0
KCL2 190726Z 19008KT 13/03 A2995 RMK A01 T01270031  RH  052%=      5-min Rain = 0
KCL2 190727Z 19007KT 13/03 A2995 RMK A01 T01270031  RH  052%=      5-min Rain = 0
KCL2 190728Z 19007KT 13/03 A2995 RMK A01 T01270031  RH  052%=      5-min Rain = 0
KCL2 190729Z 19007KT 13/03 A2995 RMK A01 T01260031  RH  052%=      5-min Rain = 0
KCL2 190730Z 19007KT 13/03 A2995 RMK A01 T01260031  RH  052%=      5-min Rain = 0
KCL2 190731Z 19007KT 13/03 A2995 RMK A01 T01260031  RH  052%=      5-min Rain = 0
KCL2 190732Z 19007KT 13/03 A2995 RMK A01 T01250031  RH  052%=      5-min Rain = 0
KCL2 190733Z 19007KT 13/03 A2995 RMK A01 T01260031  RH  052%=      5-min Rain = 0
KCL2 190734Z 18006KT 13/03 A2995 RMK A01 T01250030  RH  052%=      5-min Rain = 0
KCL2 190735Z 18006KT 12/03 A2995 RMK A01 T01240030  RH  052%=      5-min Rain = 0
KCL2 190736Z 18006KT 12/03 A2995 RMK A01 T01230029  RH  053%=      5-min Rain = 0
KCL2 190737Z 18007KT 12/03 A2995 RMK A01 T01210029  RH  053%=      5-min Rain = 0
KCL2 190738Z 18007KT 12/03 A2995 RMK A01 T01210029  RH  053%=      5-min Rain = 0
KCL2 190739Z 18007KT 12/03 A2995 RMK A01 T01200028  RH  054%=      5-min Rain = 0
KCL2 190740Z 18007KT 12/03 A2995 RMK A01 T01200029  RH  054%=      5-min Rain = 0
KCL2 190741Z 18007KT 12/03 A2995 RMK A01 T01200029  RH  054%=      5-min Rain = 0
KCL2 190742Z 18007KT 12/03 A2995 RMK A01 T01200029  RH  054%=      5-min Rain = 0
KCL2 190743Z 18007KT 12/03 A2995 RMK A01 T01190029  RH  054%=      5-min Rain = 0
KCL2 190744Z 18007KT 12/03 A2995 RMK A01 T01190029  RH  054%=      5-min Rain = 0
KCL2 190745Z 19007KT 12/03 A2995 RMK A01 T01180028  RH  054%=      5-min Rain = 0
KCL2 190746Z 18006KT 12/03 A2995 RMK A01 T01170028  RH  054%=      5-min Rain = 0
KCL2 190747Z 18006KT 12/03 A2995 RMK A01 T01170029  RH  055%=      5-min Rain = 0
KCL2 190748Z 18006KT 12/03 A2995 RMK A01 T01160028  RH  055%=      5-min Rain = 0
KCL2 190749Z 18006KT 12/03 A2995 RMK A01 T01160028  RH  055%=      5-min Rain = 0
KCL2 190750Z 18007KT 12/03 A2995 RMK A01 T01150028  RH  055%=      5-min Rain = 0
KCL2 190751Z 18007KT 12/03 A2995 RMK A01 T01150028  RH  055%=      5-min Rain = 0
KCL2 190752Z 19006KT 12/03 A2995 RMK A01 T01150028  RH  055%=      5-min Rain = 0
KCL2 190753Z 19006KT 11/03 A2995 RMK A01 T01140027  RH  055%=      5-min Rain = 0
KCL2 190754Z 19007KT 11/03 A2995 RMK A01 T01140028  RH  055%=      5-min Rain = 0
KCL2 190755Z 19006KT 11/03 A2995 RMK A01 T01130027  RH  056%=      5-min Rain = 0
KCL2 190756Z 19006KT 11/03 A2995 RMK A01 T01120027  RH  056%=      5-min Rain = 0
KCL2 190757Z 19007KT 11/03 A2995 RMK A01 T01110027  RH  056%=      5-min Rain = 0
KCL2 190758Z 19007KT 11/03 A2995 RMK A01 T01110027  RH  056%=      5-min Rain = 0
KCL2 190759Z 18007KT 11/03 A2995 RMK A01 T01100027  RH  056%=      5-min Rain = 0
KCL2 190800Z 18006KT 11/03 A2995 RMK A01 T01100027  RH  056%=      5-min Rain = 0
KCL2 190801Z 18006KT 11/03 A2995 RMK A01 T01100027  RH  057%=      5-min Rain = 0
KCL2 190802Z 18006KT 11/03 A2995 RMK A01 T01090027  RH  057%=      5-min Rain = 0
KCL2 190803Z 18007KT 11/03 A2995 RMK A01 T01090027  RH  057%=      5-min Rain = 0
KCL2 190804Z 18007KT 11/03 A2995 RMK A01 T01100027  RH  057%=      5-min Rain = 0
KCL2 190805Z 18007KT 11/03 A2995 RMK A01 T01100028  RH  057%=      5-min Rain = 0
KCL2 190806Z 18008KT 11/03 A2995 RMK A01 T01110028  RH  057%=      5-min Rain = 0
KCL2 190807Z 18007KT 11/03 A2995 RMK A01 T01110029  RH  057%=      5-min Rain = 0
KCL2 190808Z 19006KT 11/03 A2995 RMK A01 T01120029  RH  057%=      5-min Rain = 0
KCL2 190809Z 19007KT 11/03 A2995 RMK A01 T01120029  RH  056%=      5-min Rain = 0
KCL2 190810Z 18007KT 11/03 A2995 RMK A01 T01130029  RH  056%=      5-min Rain = 0
KCL2 190811Z 18007KT 11/03 A2995 RMK A01 T01130029  RH  056%=      5-min Rain = 0
KCL2 190812Z 18007KT 11/03 A2995 RMK A01 T01120028  RH  056%=      5-min Rain = 0
KCL2 190813Z 18007KT 11/03 A2995 RMK A01 T01120028  RH  056%=      5-min Rain = 0
KCL2 190814Z 18008KT 11/03 A2996 RMK A01 T01120028  RH  056%=      5-min Rain = 0
KCL2 190815Z 18008KT 11/03 A2996 RMK A01 T01110028  RH  056%=      5-min Rain = 0
KCL2 190816Z 18008KT 11/03 A2996 RMK A01 T01110029  RH  057%=      5-min Rain = 0
KCL2 190817Z 18008KT 11/03 A2996 RMK A01 T01110029  RH  057%=      5-min Rain = 0
KCL2 190818Z 18008KT 11/03 A2996 RMK A01 T01110029  RH  057%=      5-min Rain = 0
KCL2 190819Z 18008KT 11/03 A2996 RMK A01 T01120030  RH  057%=      5-min Rain = 0
KCL2 190820Z 18008KT 11/03 A2996 RMK A01 T01130030  RH  057%=      5-min Rain = 0
KCL2 190821Z 18008KT 11/03 A2996 RMK A01 T01130029  RH  056%=      5-min Rain = 0
KCL2 190822Z 19008KT 12/03 A2996 RMK A01 T01150030  RH  056%=      5-min Rain = 0
KCL2 190823Z 19008KT 12/03 A2996 RMK A01 T01150030  RH  056%=      5-min Rain = 0
KCL2 190824Z 19008KT 12/03 A2996 RMK A01 T01150029  RH  056%=      5-min Rain = 0
KCL2 190825Z 19007KT 12/03 A2996 RMK A01 T01150029  RH  056%=      5-min Rain = 0
KCL2 190826Z 20008KT 12/03 A2996 RMK A01 T01150029  RH  056%=      5-min Rain = 0
KCL2 190827Z 20008KT 12/03 A2996 RMK A01 T01150029  RH  056%=      5-min Rain = 0
KCL2 190828Z 20007KT 11/03 A2996 RMK A01 T01140029  RH  056%=      5-min Rain = 0
KCL2 190829Z 20007KT 12/03 A2995 RMK A01 T01150030  RH  056%=      5-min Rain = 0
KCL2 190830Z 20007KT 11/03 A2995 RMK A01 T01140029  RH  056%=      5-min Rain = 0
KCL2 190831Z 20008KT 11/03 A2995 RMK A01 T01140029  RH  056%=      5-min Rain = 0
KCL2 190832Z 20007KT 12/03 A2995 RMK A01 T01150030  RH  056%=      5-min Rain = 0
KCL2 190833Z 20007KT 12/03 A2995 RMK A01 T01170031  RH  056%=      5-min Rain = 0
KCL2 190834Z 20007KT 12/03 A2995 RMK A01 T01170031  RH  055%=      5-min Rain = 0
KCL2 190835Z 19006KT 12/03 A2995 RMK A01 T01170030  RH  055%=      5-min Rain = 0
KCL2 190836Z 19007KT 12/03 A2995 RMK A01 T01160030  RH  055%=      5-min Rain = 0
KCL2 190837Z 20007KT 12/03 A2995 RMK A01 T01150029  RH  055%=      5-min Rain = 0
KCL2 190838Z 20007KT 12/03 A2995 RMK A01 T01150029  RH  055%=      5-min Rain = 0
KCL2 190839Z 20007KT 11/03 A2995 RMK A01 T01140029  RH  056%=      5-min Rain = 0
KCL2 190840Z 20007KT 11/03 A2995 RMK A01 T01140029  RH  056%=      5-min Rain = 0
KCL2 190841Z 20007KT 11/03 A2995 RMK A01 T01140029  RH  056%=      5-min Rain = 0
KCL2 190842Z 20007KT 11/03 A2995 RMK A01 T01140029  RH  056%=      5-min Rain = 0
KCL2 190843Z 20007KT 11/03 A2995 RMK A01 T01140029  RH  056%=      5-min Rain = 0
KCL2 190844Z 20007KT 11/03 A2995 RMK A01 T01140029  RH  056%=      5-min Rain = 0
KCL2 190845Z 20007KT 11/03 A2995 RMK A01 T01140029  RH  056%=      5-min Rain = 0
KCL2 190846Z 20007KT 11/03 A2995 RMK A01 T01140029  RH  056%=      5-min Rain = 0
KCL2 190847Z 20006KT 11/03 A2995 RMK A01 T01140029  RH  056%=      5-min Rain = 0
KCL2 190848Z 20006KT 11/03 A2995 RMK A01 T01140029  RH  056%=      5-min Rain = 0
KCL2 190849Z 20007KT 11/03 A2995 RMK A01 T01140029  RH  056%=      5-min Rain = 0
KCL2 190850Z 20007KT 12/03 A2995 RMK A01 T01150029  RH  055%=      5-min Rain = 0
KCL2 190851Z 21006KT 12/03 A2995 RMK A01 T01160029  RH  055%=      5-min Rain = 0
KCL2 190852Z 21007KT 12/03 A2995 RMK A01 T01150029  RH  055%=      5-min Rain = 0
KCL2 190853Z 21007KT 12/03 A2996 RMK A01 T01150029  RH  055%=      5-min Rain = 0
KCL2 190854Z 21008KT 12/03 A2996 RMK A01 T01160029  RH  055%=      5-min Rain = 0
KCL2 190855Z 21008KT 12/03 A2996 RMK A01 T01160030  RH  055%=      5-min Rain = 0
KCL2 190856Z 21007KT 12/03 A2996 RMK A01 T01170030  RH  055%=      5-min Rain = 0
KCL2 190857Z 21007KT 12/03 A2996 RMK A01 T01170030  RH  055%=      5-min Rain = 0
KCL2 190858Z 21007KT 12/03 A2996 RMK A01 T01180030  RH  055%=      5-min Rain = 0
KCL2 190859Z 21006KT 12/03 A2996 RMK A01 T01190031  RH  055%=      5-min Rain = 0
KCL2 190900Z 21006KT 12/03 A2996 RMK A01 T01200030  RH  054%=      5-min Rain = 0
KCL2 190901Z 21005KT 12/03 A2996 RMK A01 T01200030  RH  054%=      5-min Rain = 0
KCL2 190902Z 22006KT 12/03 A2996 RMK A01 T01200030  RH  054%=      5-min Rain = 0
KCL2 190903Z 22006KT 12/03 A2996 RMK A01 T01200030  RH  054%=      5-min Rain = 0
KCL2 190904Z 22006KT 12/03 A2996 RMK A01 T01190030  RH  054%=      5-min Rain = 0
KCL2 190905Z 22006KT 12/03 A2996 RMK A01 T01200030  RH  054%=      5-min Rain = 0
KCL2 190906Z 22006KT 12/03 A2996 RMK A01 T01200030  RH  054%=      5-min Rain = 0
KCL2 190907Z 23006KT 12/03 A2996 RMK A01 T01200030  RH  054%=      5-min Rain = 0
KCL2 190908Z 23005KT 12/03 A2996 RMK A01 T01210030  RH  054%=      5-min Rain = 0
KCL2 190909Z 23006KT 12/03 A2996 RMK A01 T01210030  RH  054%=      5-min Rain = 0
KCL2 190910Z 23006KT 12/03 A2995 RMK A01 T01210030  RH  054%=      5-min Rain = 0
KCL2 190911Z 23006KT 12/03 A2995 RMK A01 T01220030  RH  053%=      5-min Rain = 0
KCL2 190912Z 23006KT 12/03 A2995 RMK A01 T01220030  RH  053%=      5-min Rain = 0
KCL2 190913Z 23006KT 12/03 A2995 RMK A01 T01220030  RH  053%=      5-min Rain = 0
KCL2 190914Z 23006KT 12/03 A2995 RMK A01 T01210030  RH  053%=      5-min Rain = 0
KCL2 190915Z 22006KT 12/03 A2995 RMK A01 T01220030  RH  053%=      5-min Rain = 0
KCL2 190916Z 22007KT 12/03 A2995 RMK A01 T01210030  RH  053%=      5-min Rain = 0
KCL2 190917Z 22007KT 12/03 A2995 RMK A01 T01210030  RH  053%=      5-min Rain = 0
KCL2 190918Z 22007KT 12/03 A2995 RMK A01 T01220030  RH  053%=      5-min Rain = 0
KCL2 190919Z 22007KT 12/03 A2995 RMK A01 T01230030  RH  053%=      5-min Rain = 0
KCL2 190920Z 22008KT 12/03 A2995 RMK A01 T01240031  RH  053%=      5-min Rain = 0
KCL2 190921Z 23008KT 12/03 A2995 RMK A01 T01240031  RH  053%=      5-min Rain = 0
KCL2 190922Z 23008KT 13/03 A2996 RMK A01 T01260032  RH  053%=      5-min Rain = 0
KCL2 190923Z 23008KT 13/03 A2996 RMK A01 T01270032  RH  052%=      5-min Rain = 0
KCL2 190924Z 23008KT 13/03 A2995 RMK A01 T01280032  RH  052%=      5-min Rain = 0
KCL2 190925Z 23008KT 13/03 A2995 RMK A01 T01280032  RH  052%=      5-min Rain = 0
KCL2 190926Z 23007KT 13/03 A2995 RMK A01 T01280032  RH  052%=      5-min Rain = 0
KCL2 190927Z 22008KT 13/03 A2995 RMK A01 T01280032  RH  052%=      5-min Rain = 0
KCL2 190928Z 22008KT 13/03 A2995 RMK A01 T01290032  RH  052%=      5-min Rain = 0
KCL2 190929Z 22008KT 13/03 A2995 RMK A01 T01300032  RH  051%=      5-min Rain = 0
KCL2 190930Z 23008KT 13/03 A2995 RMK A01 T01310033  RH  051%=      5-min Rain = 0
KCL2 190931Z 23008KT 13/03 A2995 RMK A01 T01320033  RH  051%=      5-min Rain = 0
KCL2 190932Z 23008KT 13/03 A2995 RMK A01 T01320033  RH  051%=      5-min Rain = 0
KCL2 190933Z 22008KT 13/03 A2995 RMK A01 T01320033  RH  051%=      5-min Rain = 0
KCL2 190934Z 23008KT 13/03 A2995 RMK A01 T01320033  RH  051%=      5-min Rain = 0
KCL2 190935Z 23007KT 13/03 A2995 RMK A01 T01320032  RH  051%=      5-min Rain = 0
KCL2 190936Z 23008KT 13/03 A2995 RMK A01 T01330033  RH  051%=      5-min Rain = 0
KCL2 190937Z 23007KT 13/03 A2995 RMK A01 T01320032  RH  051%=      5-min Rain = 0
KCL2 190938Z 23008KT 13/03 A2995 RMK A01 T01330032  RH  051%=      5-min Rain = 0
KCL2 190939Z 23007KT 14/03 A2995 RMK A01 T01350033  RH  050%=      5-min Rain = 0
KCL2 190940Z 23008KT 14/03 A2995 RMK A01 T01350033  RH  050%=      5-min Rain = 0
KCL2 190941Z 23008KT 14/03 A2995 RMK A01 T01360033  RH  050%=      5-min Rain = 0
KCL2 190942Z 23008KT 14/03 A2995 RMK A01 T01360033  RH  050%=      5-min Rain = 0
KCL2 190943Z 22008KT 14/03 A2995 RMK A01 T01370033  RH  049%=      5-min Rain = 0
KCL2 190944Z 23008KT 14/03 A2995 RMK A01 T01390033  RH  049%=      5-min Rain = 0
KCL2 190945Z 23008KT 14/03 A2995 RMK A01 T01380033  RH  049%=      5-min Rain = 0
KCL2 190946Z 23008KT 14/03 A2995 RMK A01 T01370033  RH  049%=      5-min Rain = 0
KCL2 190947Z 23008KT 14/03 A2995 RMK A01 T01370033  RH  049%=      5-min Rain = 0
KCL2 190948Z 23008KT 14/03 A2995 RMK A01 T01370033  RH  049%=      5-min Rain = 0
KCL2 190949Z 23008KT 14/03 A2995 RMK A01 T01360033  RH  050%=      5-min Rain = 0
KCL2 190950Z 22008KT 14/03 A2995 RMK A01 T01360033  RH  050%=      5-min Rain = 0
KCL2 190951Z 22008KT 14/03 A2995 RMK A01 T01350033  RH  050%=      5-min Rain = 0
KCL2 190952Z 22008KT 13/03 A2995 RMK A01 T01340033  RH  050%=      5-min Rain = 0
KCL2 190953Z 22009KT 14/03 A2995 RMK A01 T01350033  RH  050%=      5-min Rain = 0
KCL2 190954Z 22009KT 14/03 A2995 RMK A01 T01350033  RH  050%=      5-min Rain = 0
KCL2 190955Z 22008KT 14/03 A2995 RMK A01 T01360033  RH  050%=      5-min Rain = 0
KCL2 190956Z 22008KT 14/03 A2995 RMK A01 T01360033  RH  050%=      5-min Rain = 0
KCL2 190957Z 22008KT 14/03 A2995 RMK A01 T01370033  RH  050%=      5-min Rain = 0
KCL2 190958Z 22007KT 14/03 A2995 RMK A01 T01370033  RH  049%=      5-min Rain = 0
KCL2 190959Z 23008KT 14/03 A2995 RMK A01 T01370033  RH  050%=      5-min Rain = 0
KCL2 191000Z 22008KT 14/03 A2995 RMK A01 T01370033  RH  049%=      5-min Rain = 0
KCL2 191001Z 22008KT 14/03 A2995 RMK A01 T01370033  RH  050%=      5-min Rain = 0
KCL2 191002Z 23009KT 14/03 A2995 RMK A01 T01360033  RH  050%=      5-min Rain = 0
KCL2 191003Z 23008KT 14/03 A2995 RMK A01 T01360033  RH  050%=      5-min Rain = 0
KCL2 191004Z 23008KT 14/03 A2995 RMK A01 T01360033  RH  050%=      5-min Rain = 0
KCL2 191005Z 23008KT 14/03 A2996 RMK A01 T01360033  RH  050%=      5-min Rain = 0
KCL2 191006Z 23008KT 14/03 A2996 RMK A01 T01360033  RH  050%=      5-min Rain = 0
KCL2 191007Z 23007KT 14/03 A2996 RMK A01 T01360033  RH  050%=      5-min Rain = 0
KCL2 191008Z 23008KT 14/03 A2996 RMK A01 T01360033  RH  050%=      5-min Rain = 0
KCL2 191009Z 23008KT 14/03 A2995 RMK A01 T01350032  RH  050%=      5-min Rain = 0
KCL2 191010Z 23008KT 14/03 A2996 RMK A01 T01350033  RH  050%=      5-min Rain = 0
KCL2 191011Z 22007KT 14/03 A2996 RMK A01 T01350033  RH  050%=      5-min Rain = 0
KCL2 191012Z 22007KT 13/03 A2996 RMK A01 T01340032  RH  050%=      5-min Rain = 0
KCL2 191013Z 23006KT 13/03 A2996 RMK A01 T01330032  RH  050%=      5-min Rain = 0
KCL2 191014Z 23007KT 13/03 A2996 RMK A01 T01320032  RH  051%=      5-min Rain = 0
KCL2 191015Z 23007KT 13/03 A2996 RMK A01 T01310032  RH  051%=      5-min Rain = 0
KCL2 191016Z 23006KT 13/03 A2996 RMK A01 T01300032  RH  051%=      5-min Rain = 0
KCL2 191017Z 22006KT 13/03 A2996 RMK A01 T01290031  RH  051%=      5-min Rain = 0
KCL2 191018Z 22006KT 13/03 A2996 RMK A01 T01290031  RH  052%=      5-min Rain = 0
KCL2 191019Z 22006KT 13/03 A2996 RMK A01 T01280031  RH  052%=      5-min Rain = 0
KCL2 191020Z 22006KT 13/03 A2996 RMK A01 T01270031  RH  052%=      5-min Rain = 0
KCL2 191021Z 22006KT 13/03 A2996 RMK A01 T01260030  RH  052%=      5-min Rain = 0
KCL2 191022Z 22006KT 13/03 A2996 RMK A01 T01260030  RH  052%=      5-min Rain = 0
KCL2 191023Z 22006KT 13/03 A2996 RMK A01 T01250030  RH  052%=      5-min Rain = 0
KCL2 191024Z 22007KT 12/03 A2996 RMK A01 T01240031  RH  053%=      5-min Rain = 0
KCL2 191025Z 22006KT 12/03 A2996 RMK A01 T01240031  RH  053%=      5-min Rain = 0
KCL2 191026Z 22007KT 12/03 A2996 RMK A01 T01240031  RH  053%=      5-min Rain = 0
KCL2 191027Z 22007KT 12/03 A2996 RMK A01 T01240031  RH  053%=      5-min Rain = 0
KCL2 191028Z 22007KT 12/03 A2996 RMK A01 T01230032  RH  053%=      5-min Rain = 0
KCL2 191029Z 22007KT 12/03 A2996 RMK A01 T01230032  RH  054%=      5-min Rain = 0
KCL2 191030Z 22007KT 12/03 A2996 RMK A01 T01230033  RH  054%=      5-min Rain = 0
KCL2 191031Z 22007KT 12/03 A2996 RMK A01 T01230033  RH  054%=      5-min Rain = 0
KCL2 191032Z 22007KT 12/03 A2996 RMK A01 T01230034  RH  054%=      5-min Rain = 0
KCL2 191033Z 22007KT 12/03 A2996 RMK A01 T01240034  RH  054%=      5-min Rain = 0
KCL2 191034Z 22007KT 12/03 A2996 RMK A01 T01240034  RH  054%=      5-min Rain = 0
KCL2 191035Z 22007KT 12/04 A2996 RMK A01 T01240035  RH  054%=      5-min Rain = 0
KCL2 191036Z 23007KT 12/04 A2996 RMK A01 T01240035  RH  055%=      5-min Rain = 0
KCL2 191037Z 22007KT 12/04 A2996 RMK A01 T01240036  RH  055%=      5-min Rain = 0
KCL2 191038Z 22007KT 13/04 A2996 RMK A01 T01250036  RH  054%=      5-min Rain = 0
KCL2 191039Z 22007KT 13/04 A2996 RMK A01 T01260036  RH  054%=      5-min Rain = 0
KCL2 191040Z 22007KT 13/04 A2996 RMK A01 T01260036  RH  054%=      5-min Rain = 0
KCL2 191041Z 22007KT 13/04 A2996 RMK A01 T01260037  RH  054%=      5-min Rain = 0
KCL2 191042Z 22006KT 13/04 A2996 RMK A01 T01260037  RH  054%=      5-min Rain = 0
KCL2 191043Z 22006KT 13/04 A2996 RMK A01 T01260037  RH  054%=      5-min Rain = 0
KCL2 191044Z 22007KT 13/04 A2996 RMK A01 T01260037  RH  054%=      5-min Rain = 0
KCL2 191045Z 22007KT 13/04 A2996 RMK A01 T01250036  RH  054%=      5-min Rain = 0
KCL2 191046Z 22007KT 13/04 A2996 RMK A01 T01250036  RH  055%=      5-min Rain = 0
KCL2 191047Z 22007KT 13/04 A2996 RMK A01 T01250037  RH  055%=      5-min Rain = 0
KCL2 191048Z 22007KT 12/04 A2996 RMK A01 T01240036  RH  055%=      5-min Rain = 0
KCL2 191049Z 22007KT 12/04 A2996 RMK A01 T01240036  RH  055%=      5-min Rain = 0
KCL2 191050Z 22007KT 12/04 A2996 RMK A01 T01230036  RH  055%=      5-min Rain = 0
KCL2 191051Z 22007KT 12/04 A2996 RMK A01 T01240037  RH  055%=      5-min Rain = 0
KCL2 191052Z 22006KT 12/04 A2996 RMK A01 T01240036  RH  055%=      5-min Rain = 0
KCL2 191053Z 22006KT 12/04 A2996 RMK A01 T01240036  RH  055%=      5-min Rain = 0
KCL2 191054Z 22006KT 12/04 A2996 RMK A01 T01240037  RH  055%=      5-min Rain = 0
KCL2 191055Z 22006KT 12/04 A2996 RMK A01 T01240037  RH  055%=      5-min Rain = 0
KCL2 191056Z 22007KT 12/04 A2996 RMK A01 T01240036  RH  055%=      5-min Rain = 0
KCL2 191057Z 22006KT 12/04 A2996 RMK A01 T01240036  RH  055%=      5-min Rain = 0
KCL2 191058Z 22006KT 12/04 A2996 RMK A01 T01230036  RH  055%=      5-min Rain = 0
KCL2 191059Z 22006KT 12/04 A2996 RMK A01 T01230036  RH  055%=      5-min Rain = 0
KCL2 191100Z 22006KT 12/04 A2996 RMK A01 T01220036  RH  056%=      5-min Rain = 0
KCL2 191101Z 22006KT 12/04 A2996 RMK A01 T01220036  RH  056%=      5-min Rain = 0
KCL2 191102Z 22006KT 12/04 A2996 RMK A01 T01220036  RH  056%=      5-min Rain = 0
KCL2 191103Z 22006KT 12/04 A2996 RMK A01 T01230036  RH  055%=      5-min Rain = 0
KCL2 191104Z 22006KT 12/04 A2996 RMK A01 T01230036  RH  055%=      5-min Rain = 0
KCL2 191105Z 22007KT 12/04 A2996 RMK A01 T01220036  RH  055%=      5-min Rain = 0
KCL2 191106Z 22006KT 12/04 A2996 RMK A01 T01220036  RH  056%=      5-min Rain = 0
KCL2 191107Z 22006KT 12/04 A2996 RMK A01 T01210036  RH  056%=      5-min Rain = 0
KCL2 191108Z 22007KT 12/04 A2996 RMK A01 T01210035  RH  056%=      5-min Rain = 0
KCL2 191109Z 22007KT 12/04 A2996 RMK A01 T01210036  RH  056%=      5-min Rain = 0
KCL2 191110Z 22006KT 12/04 A2996 RMK A01 T01210036  RH  056%=      5-min Rain = 0
KCL2 191111Z 22006KT 12/04 A2996 RMK A01 T01210036  RH  056%=      5-min Rain = 0
KCL2 191112Z 22006KT 12/04 A2996 RMK A01 T01210036  RH  056%=      5-min Rain = 0
KCL2 191113Z 22006KT 12/04 A2996 RMK A01 T01210036  RH  056%=      5-min Rain = 0
KCL2 191114Z 22006KT 12/04 A2996 RMK A01 T01210035  RH  056%=      5-min Rain = 0
KCL2 191115Z 22006KT 12/04 A2996 RMK A01 T01210036  RH  056%=      5-min Rain = 0
KCL2 191116Z 22006KT 12/04 A2996 RMK A01 T01210036  RH  056%=      5-min Rain = 0
KCL2 191117Z 22006KT 12/04 A2996 RMK A01 T01210036  RH  056%=      5-min Rain = 0
KCL2 191118Z 22006KT 12/04 A2996 RMK A01 T01210036  RH  056%=      5-min Rain = 0
KCL2 191119Z 22006KT 12/04 A2996 RMK A01 T01210036  RH  056%=      5-min Rain = 0
KCL2 191120Z 22006KT 12/04 A2996 RMK A01 T01210036  RH  056%=      5-min Rain = 0
KCL2 191121Z 22006KT 12/04 A2996 RMK A01 T01210036  RH  056%=      5-min Rain = 0
KCL2 191122Z 22006KT 12/04 A2996 RMK A01 T01210036  RH  056%=      5-min Rain = 0
KCL2 191123Z 22006KT 12/04 A2996 RMK A01 T01210036  RH  056%=      5-min Rain = 0
KCL2 191124Z 22006KT 12/04 A2996 RMK A01 T01210036  RH  056%=      5-min Rain = 0
KCL2 191125Z 22006KT 12/04 A2996 RMK A01 T01210036  RH  056%=      5-min Rain = 0
KCL2 191126Z 22006KT 12/04 A2996 RMK A01 T01220036  RH  056%=      5-min Rain = 0
KCL2 191127Z 21005KT 12/04 A2996 RMK A01 T01230036  RH  056%=      5-min Rain = 0
KCL2 191128Z 21005KT 12/04 A2996 RMK A01 T01230036  RH  055%=      5-min Rain = 0
KCL2 191129Z 22005KT 12/04 A2996 RMK A01 T01240036  RH  055%=      5-min Rain = 0
KCL2 191130Z 21005KT 12/04 A2995 RMK A01 T01240036  RH  055%=      5-min Rain = 0
KCL2 191131Z 21005KT 13/04 A2995 RMK A01 T01250037  RH  055%=      5-min Rain = 0
KCL2 191132Z 22005KT 13/04 A2995 RMK A01 T01250036  RH  055%=      5-min Rain = 0
KCL2 191133Z 21005KT 13/04 A2995 RMK A01 T01260036  RH  054%=      5-min Rain = 0
KCL2 191134Z 21005KT 13/04 A2995 RMK A01 T01260036  RH  054%=      5-min Rain = 0
KCL2 191135Z 21005KT 13/04 A2995 RMK A01 T01260036  RH  055%=      5-min Rain = 0
KCL2 191136Z 21005KT 13/04 A2995 RMK A01 T01250036  RH  055%=      5-min Rain = 0
KCL2 191137Z 21006KT 13/04 A2995 RMK A01 T01250036  RH  055%=      5-min Rain = 0
KCL2 191138Z 21006KT 12/04 A2995 RMK A01 T01240036  RH  055%=      5-min Rain = 0
KCL2 191139Z 21006KT 12/04 A2995 RMK A01 T01230036  RH  055%=      5-min Rain = 0
KCL2 191140Z 21006KT 12/04 A2995 RMK A01 T01230036  RH  055%=      5-min Rain = 0
KCL2 191141Z 21006KT 12/04 A2995 RMK A01 T01230036  RH  055%=      5-min Rain = 0
KCL2 191142Z 21006KT 12/04 A2995 RMK A01 T01230036  RH  055%=      5-min Rain = 0
KCL2 191143Z 21006KT 12/04 A2995 RMK A01 T01230036  RH  055%=      5-min Rain = 0
KCL2 191144Z 21006KT 12/04 A2995 RMK A01 T01220036  RH  055%=      5-min Rain = 0
KCL2 191145Z 22006KT 12/04 A2995 RMK A01 T01220036  RH  055%=      5-min Rain = 0
KCL2 191146Z 22006KT 12/04 A2995 RMK A01 T01220036  RH  055%=      5-min Rain = 0
KCL2 191147Z 22006KT 12/04 A2995 RMK A01 T01220036  RH  056%=      5-min Rain = 0
KCL2 191148Z 22006KT 12/04 A2995 RMK A01 T01220036  RH  056%=      5-min Rain = 0
KCL2 191149Z 21006KT 12/04 A2995 RMK A01 T01210035  RH  056%=      5-min Rain = 0
KCL2 191150Z 22006KT 12/04 A2995 RMK A01 T01210035  RH  056%=      5-min Rain = 0
KCL2 191151Z 22006KT 12/04 A2995 RMK A01 T01210035  RH  056%=      5-min Rain = 0
KCL2 191152Z 21006KT 12/04 A2995 RMK A01 T01210035  RH  056%=      5-min Rain = 0
KCL2 191153Z 21006KT 12/04 A2995 RMK A01 T01210035  RH  056%=      5-min Rain = 0
KCL2 191154Z 21006KT 12/04 A2995 RMK A01 T01210035  RH  056%=      5-min Rain = 0
KCL2 191155Z 21006KT 12/04 A2995 RMK A01 T01210035  RH  056%=      5-min Rain = 0
KCL2 191156Z 21006KT 12/04 A2995 RMK A01 T01210035  RH  055%=      5-min Rain = 0
KCL2 191157Z 21006KT 12/04 A2995 RMK A01 T01220035  RH  055%=      5-min Rain = 0
KCL2 191158Z 21006KT 12/04 A2995 RMK A01 T01220035  RH  055%=      5-min Rain = 0
KCL2 191159Z 21006KT 12/04 A2996 RMK A01 T01220035  RH  055%=      5-min Rain = 0
KCL2 191200Z 21006KT 12/04 A2996 RMK A01 T01210035  RH  056%=      5-min Rain = 0
KCL2 191201Z 21006KT 12/04 A2996 RMK A01 T01210035  RH  056%=      5-min Rain = 0
KCL2 191202Z 21006KT 12/04 A2996 RMK A01 T01210035  RH  055%=      5-min Rain = 0
KCL2 191203Z 21006KT 12/04 A2996 RMK A01 T01210035  RH  055%=      5-min Rain = 0
KCL2 191204Z 21006KT 12/04 A2996 RMK A01 T01210035  RH  056%=      5-min Rain = 0
KCL2 191205Z 21006KT 12/04 A2996 RMK A01 T01220035  RH  056%=      5-min Rain = 0
KCL2 191206Z 21006KT 12/04 A2996 RMK A01 T01220035  RH  055%=      5-min Rain = 0
KCL2 191207Z 20006KT 12/04 A2996 RMK A01 T01220035  RH  055%=      5-min Rain = 0
KCL2 191208Z 21006KT 12/04 A2996 RMK A01 T01220035  RH  055%=      5-min Rain = 0
KCL2 191209Z 21007KT 12/04 A2996 RMK A01 T01220035  RH  055%=      5-min Rain = 0
KCL2 191210Z 21007KT 12/04 A2996 RMK A01 T01220035  RH  055%=      5-min Rain = 0
KCL2 191211Z 21007KT 12/04 A2996 RMK A01 T01220035  RH  055%=      5-min Rain = 0
KCL2 191212Z 21007KT 12/04 A2996 RMK A01 T01220035  RH  055%=      5-min Rain = 0
KCL2 191213Z 21007KT 12/04 A2996 RMK A01 T01230035  RH  055%=      5-min Rain = 0
KCL2 191214Z 21006KT 12/04 A2996 RMK A01 T01230035  RH  055%=      5-min Rain = 0
KCL2 191215Z 21006KT 12/04 A2996 RMK A01 T01230035  RH  055%=      5-min Rain = 0
KCL2 191216Z 21006KT 12/04 A2996 RMK A01 T01240035  RH  055%=      5-min Rain = 0
KCL2 191217Z 21006KT 12/04 A2996 RMK A01 T01240035  RH  054%=      5-min Rain = 0
KCL2 191218Z 21006KT 13/04 A2996 RMK A01 T01250035  RH  054%=      5-min Rain = 0
KCL2 191219Z 21006KT 13/04 A2996 RMK A01 T01250035  RH  054%=      5-min Rain = 0
KCL2 191220Z 21006KT 13/04 A2996 RMK A01 T01260035  RH  054%=      5-min Rain = 0
KCL2 191221Z 20006KT 13/04 A2996 RMK A01 T01260035  RH  054%=      5-min Rain = 0
KCL2 191222Z 20006KT 13/04 A2996 RMK A01 T01260035  RH  054%=      5-min Rain = 0
KCL2 191223Z 20006KT 13/03 A2996 RMK A01 T01250034  RH  054%=      5-min Rain = 0
KCL2 191224Z 20006KT 12/03 A2996 RMK A01 T01240034  RH  054%=      5-min Rain = 0
KCL2 191225Z 20007KT 12/03 A2996 RMK A01 T01240034  RH  054%=      5-min Rain = 0
KCL2 191226Z 20007KT 12/03 A2996 RMK A01 T01240034  RH  054%=      5-min Rain = 0
KCL2 191227Z 20007KT 12/03 A2996 RMK A01 T01240034  RH  054%=      5-min Rain = 0
KCL2 191228Z 20006KT 12/04 A2996 RMK A01 T01240035  RH  054%=      5-min Rain = 0
KCL2 191229Z 20006KT 12/03 A2996 RMK A01 T01240034  RH  054%=      5-min Rain = 0
KCL2 191230Z 19006KT 13/04 A2996 RMK A01 T01250035  RH  054%=      5-min Rain = 0
KCL2 191231Z 19006KT 13/03 A2996 RMK A01 T01250034  RH  054%=      5-min Rain = 0
KCL2 191232Z 19006KT 13/04 A2997 RMK A01 T01250035  RH  054%=      5-min Rain = 0
KCL2 191233Z 19006KT 13/04 A2997 RMK A01 T01260035  RH  054%=      5-min Rain = 0
KCL2 191234Z 19006KT 13/04 A2997 RMK A01 T01260035  RH  054%=      5-min Rain = 0
KCL2 191235Z 19006KT 12/04 A2997 RMK A01 T01240035  RH  054%=      5-min Rain = 0
KCL2 191236Z 18007KT 12/03 A2997 RMK A01 T01230034  RH  055%=      5-min Rain = 0
KCL2 191237Z 18006KT 12/03 A2997 RMK A01 T01210034  RH  055%=      5-min Rain = 0
KCL2 191238Z 19006KT 12/03 A2997 RMK A01 T01190034  RH  056%=      5-min Rain = 0
KCL2 191239Z 19007KT 12/03 A2997 RMK A01 T01170034  RH  057%=      5-min Rain = 0
KCL2 191240Z 18007KT 12/04 A2997 RMK A01 T01160035  RH  057%=      5-min Rain = 0
KCL2 191241Z 18007KT 12/04 A2997 RMK A01 T01160035  RH  058%=      5-min Rain = 0
KCL2 191242Z 18007KT 12/04 A2997 RMK A01 T01150035  RH  058%=      5-min Rain = 0
KCL2 191243Z 18006KT 11/04 A2997 RMK A01 T01140035  RH  058%=      5-min Rain = 0
KCL2 191244Z 18006KT 11/04 A2997 RMK A01 T01130035  RH  059%=      5-min Rain = 0
KCL2 191245Z 18006KT 11/04 A2997 RMK A01 T01120035  RH  059%=      5-min Rain = 0
KCL2 191246Z 18006KT 11/04 A2997 RMK A01 T01110036  RH  060%=      5-min Rain = 0
KCL2 191247Z 18006KT 11/04 A2997 RMK A01 T01100036  RH  060%=      5-min Rain = 0
KCL2 191248Z 18006KT 11/04 A2997 RMK A01 T01100036  RH  060%=      5-min Rain = 0
KCL2 191249Z 18006KT 11/04 A2997 RMK A01 T01090036  RH  061%=      5-min Rain = 0
KCL2 191250Z 18007KT 11/04 A2997 RMK A01 T01080036  RH  061%=      5-min Rain = 0
KCL2 191251Z 18007KT 11/04 A2997 RMK A01 T01080037  RH  061%=      5-min Rain = 0
KCL2 191252Z 18007KT 11/04 A2997 RMK A01 T01080037  RH  062%=      5-min Rain = 0
KCL2 191253Z 19007KT 11/04 A2997 RMK A01 T01080037  RH  061%=      5-min Rain = 0
KCL2 191254Z 19007KT 11/04 A2997 RMK A01 T01080037  RH  061%=      5-min Rain = 0
KCL2 191255Z 19007KT 11/04 A2997 RMK A01 T01080036  RH  061%=      5-min Rain = 0
KCL2 191256Z 18007KT 11/04 A2997 RMK A01 T01080036  RH  061%=      5-min Rain = 0
KCL2 191257Z 18007KT 11/04 A2997 RMK A01 T01080035  RH  061%=      5-min Rain = 0
KCL2 191258Z 19006KT 11/04 A2997 RMK A01 T01070035  RH  061%=      5-min Rain = 0
KCL2 191259Z 18006KT 11/04 A2997 RMK A01 T01070035  RH  061%=      5-min Rain = 0
KCL2 191300Z 18006KT 11/04 A2997 RMK A01 T01070035  RH  061%=      5-min Rain = 0
KCL2 191301Z 18006KT 11/04 A2997 RMK A01 T01070035  RH  061%=      5-min Rain = 0
KCL2 191302Z 18006KT 11/04 A2997 RMK A01 T01070035  RH  061%=      5-min Rain = 0
KCL2 191303Z 18006KT 11/04 A2997 RMK A01 T01060035  RH  061%=      5-min Rain = 0
KCL2 191304Z 18006KT 11/04 A2997 RMK A01 T01060035  RH  061%=      5-min Rain = 0
KCL2 191305Z 18006KT 11/04 A2997 RMK A01 T01070035  RH  061%=      5-min Rain = 0
KCL2 191306Z 18006KT 11/04 A2997 RMK A01 T01070035  RH  061%=      5-min Rain = 0
KCL2 191307Z 18006KT 11/04 A2997 RMK A01 T01070035  RH  061%=      5-min Rain = 0
KCL2 191308Z 18006KT 11/04 A2997 RMK A01 T01070035  RH  061%=      5-min Rain = 0
KCL2 191309Z 18006KT 11/04 A2997 RMK A01 T01070035  RH  061%=      5-min Rain = 0
KCL2 191310Z 19006KT 11/04 A2997 RMK A01 T01070035  RH  061%=      5-min Rain = 0
KCL2 191311Z 19006KT 11/03 A2997 RMK A01 T01060034  RH  061%=      5-min Rain = 0
KCL2 191312Z 19007KT 11/03 A2997 RMK A01 T01050034  RH  062%=      5-min Rain = 0
KCL2 191313Z 19007KT 11/03 A2997 RMK A01 T01050034  RH  062%=      5-min Rain = 0
KCL2 191314Z 19006KT 11/03 A2997 RMK A01 T01050034  RH  062%=      5-min Rain = 0
KCL2 191315Z 19006KT 11/04 A2997 RMK A01 T01050036  RH  062%=      5-min Rain = 0
KCL2 191316Z 19006KT 11/04 A2997 RMK A01 T01070038  RH  062%=      5-min Rain = 0
KCL2 191317Z 19006KT 11/04 A2997 RMK A01 T01090038  RH  062%=      5-min Rain = 0
KCL2 191318Z 18006KT 11/04 A2997 RMK A01 T01100038  RH  061%=      5-min Rain = 0
KCL2 191319Z 19005KT 11/04 A2998 RMK A01 T01100037  RH  061%=      5-min Rain = 0
KCL2 191320Z 19005KT 11/04 A2998 RMK A01 T01100037  RH  060%=      5-min Rain = 0
KCL2 191321Z 18006KT 11/04 A2998 RMK A01 T01100036  RH  060%=      5-min Rain = 0
KCL2 191322Z 19006KT 11/04 A2998 RMK A01 T01100036  RH  061%=      5-min Rain = 0
KCL2 191323Z 19005KT 11/04 A2998 RMK A01 T01100036  RH  061%=      5-min Rain = 0
KCL2 191324Z 19006KT 11/04 A2998 RMK A01 T01100036  RH  061%=      5-min Rain = 0
KCL2 191325Z 19006KT 11/04 A2998 RMK A01 T01090036  RH  061%=      5-min Rain = 0
KCL2 191326Z 19006KT 11/04 A2998 RMK A01 T01090036  RH  061%=      5-min Rain = 0
KCL2 191327Z 19006KT 11/04 A2998 RMK A01 T01090036  RH  061%=      5-min Rain = 0
KCL2 191328Z 19006KT 11/04 A2998 RMK A01 T01080036  RH  061%=      5-min Rain = 0
KCL2 191329Z 19006KT 11/04 A2998 RMK A01 T01070036  RH  062%=      5-min Rain = 0
KCL2 191330Z 19006KT 11/04 A2998 RMK A01 T01060037  RH  062%=      5-min Rain = 0
KCL2 191331Z 19006KT 11/04 A2998 RMK A01 T01060037  RH  062%=      5-min Rain = 0
KCL2 191332Z 19005KT 11/04 A2998 RMK A01 T01060037  RH  062%=      5-min Rain = 0
KCL2 191333Z 19005KT 11/04 A2998 RMK A01 T01060037  RH  062%=      5-min Rain = 0
KCL2 191334Z 18005KT 11/04 A2998 RMK A01 T01060037  RH  062%=      5-min Rain = 0
KCL2 191335Z 18005KT 11/04 A2998 RMK A01 T01060037  RH  062%=      5-min Rain = 0
KCL2 191336Z 18005KT 11/04 A2998 RMK A01 T01070038  RH  062%=      5-min Rain = 0
KCL2 191337Z 18006KT 11/04 A2998 RMK A01 T01080038  RH  062%=      5-min Rain = 0
KCL2 191338Z 17006KT 11/04 A2998 RMK A01 T01100039  RH  062%=      5-min Rain = 0
KCL2 191339Z 17006KT 11/04 A2998 RMK A01 T01120040  RH  061%=      5-min Rain = 0
KCL2 191340Z 17006KT 11/04 A2998 RMK A01 T01140041  RH  061%=      5-min Rain = 0
KCL2 191341Z 18006KT 12/04 A2998 RMK A01 T01150041  RH  060%=      5-min Rain = 0
KCL2 191342Z 18005KT 12/04 A2998 RMK A01 T01170042  RH  060%=      5-min Rain = 0
KCL2 191343Z 18006KT 12/04 A2998 RMK A01 T01170042  RH  060%=      5-min Rain = 0
KCL2 191344Z 18005KT 12/04 A2998 RMK A01 T01180042  RH  059%=      5-min Rain = 0
KCL2 191345Z 18005KT 12/04 A2998 RMK A01 T01190042  RH  059%=      5-min Rain = 0
KCL2 191346Z 18006KT 12/04 A2998 RMK A01 T01200042  RH  059%=      5-min Rain = 0
KCL2 191347Z 18006KT 12/04 A2998 RMK A01 T01210042  RH  059%=      5-min Rain = 0
KCL2 191348Z 18006KT 12/04 A2998 RMK A01 T01210043  RH  059%=      5-min Rain = 0
KCL2 191349Z 18006KT 12/04 A2998 RMK A01 T01220043  RH  058%=      5-min Rain = 0
KCL2 191350Z 18005KT 12/04 A2998 RMK A01 T01230043  RH  058%=      5-min Rain = 0
KCL2 191351Z 18006KT 12/04 A2999 RMK A01 T01240043  RH  058%=      5-min Rain = 0
KCL2 191352Z 18006KT 12/04 A2999 RMK A01 T01240043  RH  058%=      5-min Rain = 0
KCL2 191353Z 18006KT 13/04 A2999 RMK A01 T01250043  RH  057%=      5-min Rain = 0
KCL2 191354Z 18006KT 13/04 A2999 RMK A01 T01260043  RH  057%=      5-min Rain = 0
KCL2 191355Z 18005KT 13/04 A2999 RMK A01 T01260043  RH  057%=      5-min Rain = 0
KCL2 191356Z 18005KT 13/04 A2999 RMK A01 T01270043  RH  056%=      5-min Rain = 0
KCL2 191357Z 19006KT 13/04 A2999 RMK A01 T01280043  RH  056%=      5-min Rain = 0
KCL2 191358Z 18005KT 13/04 A2999 RMK A01 T01280044  RH  057%=      5-min Rain = 0
KCL2 191359Z 19005KT 13/04 A2999 RMK A01 T01290044  RH  056%=      5-min Rain = 0
KCL2 191400Z 19006KT 13/04 A2999 RMK A01 T01300044  RH  056%=      5-min Rain = 0
KCL2 191401Z 19006KT 13/04 A2999 RMK A01 T01300044  RH  056%=      5-min Rain = 0
KCL2 191402Z 19006KT 13/05 A2999 RMK A01 T01300045  RH  056%=      5-min Rain = 0
KCL2 191403Z 19006KT 13/04 A2999 RMK A01 T01300044  RH  056%=      5-min Rain = 0
KCL2 191404Z 19005KT 13/05 A2999 RMK A01 T01300045  RH  056%=      5-min Rain = 0
KCL2 191405Z 19005KT 13/04 A2999 RMK A01 T01300044  RH  056%=      5-min Rain = 0
KCL2 191406Z 19005KT 13/05 A2999 RMK A01 T01310045  RH  056%=      5-min Rain = 0
KCL2 191407Z 19005KT 13/05 A2999 RMK A01 T01310046  RH  056%=      5-min Rain = 0
KCL2 191408Z 20005KT 13/05 A2999 RMK A01 T01320046  RH  056%=      5-min Rain = 0
KCL2 191409Z 20005KT 13/05 A2999 RMK A01 T01320046  RH  056%=      5-min Rain = 0
KCL2 191410Z 20005KT 13/05 A2999 RMK A01 T01320046  RH  056%=      5-min Rain = 0
KCL2 191411Z 20004KT 13/05 A2999 RMK A01 T01320046  RH  056%=      5-min Rain = 0
KCL2 191412Z 20004KT 13/05 A2999 RMK A01 T01320046  RH  056%=      5-min Rain = 0
KCL2 191413Z 20004KT 13/05 A2999 RMK A01 T01310046  RH  056%=      5-min Rain = 0
KCL2 191414Z 21004KT 13/05 A2999 RMK A01 T01310046  RH  056%=      5-min Rain = 0
KCL2 191415Z 21004KT 13/05 A2999 RMK A01 T01320047  RH  056%=      5-min Rain = 0
KCL2 191416Z 21004KT 13/05 A2999 RMK A01 T01310046  RH  056%=      5-min Rain = 0
KCL2 191417Z 21003KT 13/05 A2999 RMK A01 T01320047  RH  056%=      5-min Rain = 0
KCL2 191418Z 23003KT 13/05 A2999 RMK A01 T01330048  RH  056%=      5-min Rain = 0
KCL2 191419Z 23003KT 13/05 A2999 RMK A01 T01340049  RH  056%=      5-min Rain = 0
KCL2 191420Z 22003KT 14/05 A2999 RMK A01 T01360050  RH  056%=      5-min Rain = 0
KCL2 191421Z 22003KT 14/05 A2999 RMK A01 T01380050  RH  055%=      5-min Rain = 0
KCL2 191422Z 22003KT 14/05 A2999 RMK A01 T01390050  RH  055%=      5-min Rain = 0
KCL2 191423Z 23004KT 14/05 A2999 RMK A01 T01400051  RH  055%=      5-min Rain = 0
KCL2 191424Z 22003KT 14/05 A2999 RMK A01 T01420052  RH  055%=      5-min Rain = 0
KCL2 191425Z 23004KT 14/05 A2999 RMK A01 T01430052  RH  054%=      5-min Rain = 0
KCL2 191426Z 23004KT 15/05 A2999 RMK A01 T01450053  RH  054%=      5-min Rain = 0
KCL2 191427Z 23004KT 15/05 A2999 RMK A01 T01460053  RH  053%=      5-min Rain = 0
KCL2 191428Z 23004KT 15/05 A2999 RMK A01 T01480053  RH  053%=      5-min Rain = 0
KCL2 191429Z 23005KT 15/05 A2999 RMK A01 T01490053  RH  052%=      5-min Rain = 0
KCL2 191430Z 23004KT 15/05 A2999 RMK A01 T01500053  RH  052%=      5-min Rain = 0
KCL2 191431Z 23005KT 15/05 A2999 RMK A01 T01510054  RH  052%=      5-min Rain = 0
KCL2 191432Z 23004KT 15/05 A2999 RMK A01 T01520054  RH  052%=      5-min Rain = 0
KCL2 191433Z 23005KT 15/06 A2999 RMK A01 T01540055  RH  052%=      5-min Rain = 0
KCL2 191434Z 23005KT 16/06 A2999 RMK A01 T01550056  RH  052%=      5-min Rain = 0
KCL2 191435Z 23005KT 16/06 A2999 RMK A01 T01570057  RH  051%=      5-min Rain = 0
KCL2 191436Z 23006KT 16/06 A2999 RMK A01 T01580057  RH  051%=      5-min Rain = 0
KCL2 191437Z 23007KT 16/06 A2999 RMK A01 T01590057  RH  050%=      5-min Rain = 0
KCL2 191438Z 23007KT 16/06 A2999 RMK A01 T01600057  RH  050%=      5-min Rain = 0
KCL2 191439Z 23007KT 16/06 A2999 RMK A01 T01610057  RH  050%=      5-min Rain = 0
KCL2 191440Z 23007KT 16/06 A2999 RMK A01 T01610056  RH  050%=      5-min Rain = 0
KCL2 191441Z 24007KT 16/06 A2999 RMK A01 T01620057  RH  050%=      5-min Rain = 0
KCL2 191442Z 23006KT 16/06 A2999 RMK A01 T01630058  RH  050%=      5-min Rain = 0
KCL2 191443Z 23007KT 16/06 A30 RMK A01 T01640059  RH  050%=      5-min Rain = 0
KCL2 191444Z 23007KT 17/06 A2999 RMK A01 T01650058  RH  049%=      5-min Rain = 0
KCL2 191445Z 22007KT 17/06 A30 RMK A01 T01650058  RH  049%=      5-min Rain = 0
KCL2 191446Z 23007KT 17/06 A30 RMK A01 T01650057  RH  049%=      5-min Rain = 0
KCL2 191447Z 23007KT 17/06 A30 RMK A01 T01650059  RH  049%=      5-min Rain = 0
KCL2 191448Z 22006KT 17/06 A30 RMK A01 T01670059  RH  049%=      5-min Rain = 0
KCL2 191449Z 23008KT 17/06 A30 RMK A01 T01670059  RH  049%=      5-min Rain = 0
KCL2 191450Z 23006KT 17/06 A30 RMK A01 T01680060  RH  049%=      5-min Rain = 0
KCL2 191451Z 23008KT 17/06 A30 RMK A01 T01700060  RH  048%=      5-min Rain = 0
KCL2 191452Z 22009KT 17/06 A30 RMK A01 T01710060  RH  048%=      5-min Rain = 0
KCL2 191453Z 22008KT 17/06 A30 RMK A01 T01720060  RH  048%=      5-min Rain = 0
KCL2 191454Z 22007KT 17/06 A30 RMK A01 T01720061  RH  048%=      5-min Rain = 0
KCL2 191455Z 23008KT 17/06 A30 RMK A01 T01730060  RH  047%=      5-min Rain = 0
KCL2 191456Z 22009KT 17/06 A30 RMK A01 T01740062  RH  048%=      5-min Rain = 0
KCL2 191457Z 23009KT 18/06 A30 RMK A01 T01750060  RH  047%=      5-min Rain = 0
KCL2 191458Z 23007KT 18/06 A30 RMK A01 T01760061  RH  047%=      5-min Rain = 0
KCL2 191459Z 22009KT 18/06 A30 RMK A01 T01770062  RH  047%=      5-min Rain = 0
KCL2 191500Z 22008KT 18/06 A30 RMK A01 T01780063  RH  047%=      5-min Rain = 0
KCL2 191501Z 22008KT 18/06 A30 RMK A01 T01800063  RH  046%=      5-min Rain = 0
KCL2 191502Z 22009KT 18/06 A30 RMK A01 T01810063  RH  046%=      5-min Rain = 0
KCL2 191503Z 22008KT 18/06 A30 RMK A01 T01810061  RH  045%=      5-min Rain = 0
KCL2 191504Z 22009KT 18/06 A30 RMK A01 T01810062  RH  045%=      5-min Rain = 0
KCL2 191505Z 22007KT 18/06 A30 RMK A01 T01810062  RH  045%=      5-min Rain = 0
KCL2 191506Z 23008KT 18/06 A2999 RMK A01 T01830063  RH  045%=      5-min Rain = 0
KCL2 191507Z 22008KT 18/06 A2999 RMK A01 T01840062  RH  045%=      5-min Rain = 0
KCL2 191508Z 22007KT 18/06 A30 RMK A01 T01840063  RH  045%=      5-min Rain = 0
KCL2 191509Z 23008KT 19/06 A2999 RMK A01 T01860063  RH  045%=      5-min Rain = 0
KCL2 191510Z 23008KT 19/06 A30 RMK A01 T01860063  RH  045%=      5-min Rain = 0
KCL2 191511Z 21008KT 19/06 A30 RMK A01 T01860063  RH  045%=      5-min Rain = 0
KCL2 191512Z 22009KT 19/06 A30 RMK A01 T01870063  RH  044%=      5-min Rain = 0
KCL2 191513Z 21009KT 19/06 A30 RMK A01 T01870062  RH  044%=      5-min Rain = 0
KCL2 191514Z 21008KT 19/06 A30 RMK A01 T01870062  RH  044%=      5-min Rain = 0
KCL2 191515Z 22008KT 19/06 A30 RMK A01 T01860063  RH  044%=      5-min Rain = 0
KCL2 191516Z 22007KT 19/06 A30 RMK A01 T01860063  RH  044%=      5-min Rain = 0
KCL2 191517Z 21009KT 19/06 A30 RMK A01 T01850062  RH  045%=      5-min Rain = 0
KCL2 191518Z 22008KT 18/06 A30 RMK A01 T01820061  RH  045%=      5-min Rain = 0
KCL2 191519Z 23008KT 18/06 A30 RMK A01 T01800061  RH  046%=      5-min Rain = 0
KCL2 191520Z 22007KT 18/06 A30 RMK A01 T01800062  RH  046%=      5-min Rain = 0
KCL2 191521Z 23008KT 18/06 A30 RMK A01 T01820063  RH  046%=      5-min Rain = 0
KCL2 191522Z 23007KT 19/06 A30 RMK A01 T01850064  RH  045%=      5-min Rain = 0
KCL2 191523Z 22008KT 19/06 A30 RMK A01 T01870064  RH  045%=      5-min Rain = 0
KCL2 191524Z 22008KT 19/06 A30 RMK A01 T01880063  RH  044%=      5-min Rain = 0
KCL2 191525Z 23008KT 19/06 A30 RMK A01 T01890064  RH  044%=      5-min Rain = 0
KCL2 191526Z 22008KT 19/06 A30 RMK A01 T01890064  RH  044%=      5-min Rain = 0
KCL2 191527Z 22008KT 19/07 A30 RMK A01 T01900065  RH  044%=      5-min Rain = 0
KCL2 191528Z 22008KT 19/06 A30 RMK A01 T01920064  RH  043%=      5-min Rain = 0
KCL2 191529Z 22009KT 19/06 A30 RMK A01 T01920064  RH  043%=      5-min Rain = 0
KCL2 191530Z 23008KT 19/06 A30 RMK A01 T01920064  RH  043%=      5-min Rain = 0
KCL2 191531Z 22008KT 19/06 A30 RMK A01 T01920064  RH  043%=      5-min Rain = 0
KCL2 191532Z 22008KT 19/07 A30 RMK A01 T01930065  RH  043%=      5-min Rain = 0
KCL2 191533Z 23009KT 19/06 A30 RMK A01 T01940064  RH  043%=      5-min Rain = 0
KCL2 191534Z 23008KT 19/06 A30 RMK A01 T01930064  RH  043%=      5-min Rain = 0
KCL2 191535Z 23008KT 19/07 A30 RMK A01 T01940065  RH  043%=      5-min Rain = 0
KCL2 191536Z 23010KT 19/06 A30 RMK A01 T01940064  RH  042%=      5-min Rain = 0
KCL2 191537Z 23008KT 20/06 A30 RMK A01 T01950064  RH  043%=      5-min Rain = 0
KCL2 191538Z 23008KT 20/07 A30 RMK A01 T01950065  RH  043%=      5-min Rain = 0
KCL2 191539Z 22008KT 20/06 A30 RMK A01 T01950064  RH  042%=      5-min Rain = 0
KCL2 191540Z 22007KT 20/07 A30 RMK A01 T01950065  RH  043%=      5-min Rain = 0
KCL2 191541Z 24007KT 20/07 A30 RMK A01 T01980067  RH  043%=      5-min Rain = 0
KCL2 191542Z 23007KT 20/07 A30 RMK A01 T02000067  RH  042%=      5-min Rain = 0
KCL2 191543Z 22007KT 20/07 A30 RMK A01 T02010066  RH  042%=      5-min Rain = 0
KCL2 191544Z 23009KT 20/07 A30 RMK A01 T02010066  RH  041%=      5-min Rain = 0
KCL2 191545Z 23008KT 20/07 A30 RMK A01 T02000066  RH  042%=      5-min Rain = 0
KCL2 191546Z 23010KT 20/07 A30 RMK A01 T02000066  RH  042%=      5-min Rain = 0
KCL2 191547Z 23008KT 20/07 A30 RMK A01 T02000066  RH  041%=      5-min Rain = 0
KCL2 191548Z 23007KT 20/07 A30 RMK A01 T02000067  RH  042%=      5-min Rain = 0
KCL2 191549Z 23007KT 20/07 A30 RMK A01 T02030068  RH  041%=      5-min Rain = 0
KCL2 191550Z 23005KT 20/07 A30 RMK A01 T02030068  RH  041%=      5-min Rain = 0
KCL2 191551Z 22006KT 21/07 A30 RMK A01 T02050069  RH  041%=      5-min Rain = 0
KCL2 191552Z 23007KT 21/07 A30 RMK A01 T02060069  RH  041%=      5-min Rain = 0
KCL2 191553Z 22008KT 21/07 A30 RMK A01 T02070068  RH  041%=      5-min Rain = 0
KCL2 191554Z 22008KT 21/07 A30 RMK A01 T02070068  RH  040%=      5-min Rain = 0
KCL2 191555Z 22008KT 21/07 A30 RMK A01 T02070068  RH  040%=      5-min Rain = 0
KCL2 191556Z 23008KT 21/07 A30 RMK A01 T02060067  RH  040%=      5-min Rain = 0
KCL2 191557Z 22009KT 20/07 A30 RMK A01 T02040067  RH  041%=      5-min Rain = 0
KCL2 191558Z 22010KT 20/07 A30 RMK A01 T02040066  RH  041%=      5-min Rain = 0
KCL2 191559Z 22009KT 20/07 A30 RMK A01 T02040066  RH  041%=      5-min Rain = 0
KCL2 191600Z 21009KT 21/07 A30 RMK A01 T02050066  RH  040%=      5-min Rain = 0
KCL2 191601Z 21007KT 21/07 A30 RMK A01 T02050067  RH  041%=      5-min Rain = 0
KCL2 191602Z 21007KT 21/07 A30 RMK A01 T02070069  RH  041%=      5-min Rain = 0
KCL2 191603Z 22007KT 21/07 A30 RMK A01 T02100070  RH  040%=      5-min Rain = 0
KCL2 191604Z 23009KT 21/07 A30 RMK A01 T02120069  RH  040%=      5-min Rain = 0
KCL2 191605Z 23009KT 21/07 A30 RMK A01 T02120068  RH  039%=      5-min Rain = 0
KCL2 191606Z 21007KT 21/07 A30 RMK A01 T02110069  RH  040%=      5-min Rain = 0
KCL2 191607Z 21009KT 21/07 A30 RMK A01 T02120068  RH  039%=      5-min Rain = 0
KCL2 191608Z 21008KT 21/07 A30 RMK A01 T02120068  RH  039%=      5-min Rain = 0
KCL2 191609Z 21007KT 21/07 A30 RMK A01 T02120068  RH  039%=      5-min Rain = 0
KCL2 191610Z 22008KT 21/07 A30 RMK A01 T02120068  RH  039%=      5-min Rain = 0
KCL2 191611Z 22006KT 21/07 A30 RMK A01 T02120069  RH  040%=      5-min Rain = 0
KCL2 191612Z 23007KT 21/07 A30 RMK A01 T02130069  RH  039%=      5-min Rain = 0
KCL2 191613Z 23007KT 21/07 A30 RMK A01 T02130069  RH  039%=      5-min Rain = 0
KCL2 191614Z 21007KT 21/07 A30 RMK A01 T02130070  RH  039%=      5-min Rain = 0
KCL2 191615Z 22006KT 22/07 A2999 RMK A01 T02150070  RH  039%=      5-min Rain = 0
KCL2 191616Z 20009KT 22/07 A2999 RMK A01 T02180069  RH  038%=      5-min Rain = 0
KCL2 191617Z 21008KT 22/07 A2999 RMK A01 T02190068  RH  038%=      5-min Rain = 0
KCL2 191618Z 20007KT 22/07 A2999 RMK A01 T02180068  RH  038%=      5-min Rain = 0
KCL2 191619Z 20007KT 22/07 A2999 RMK A01 T02180068  RH  038%=      5-min Rain = 0
KCL2 191620Z 20006KT 22/07 A2999 RMK A01 T02190069  RH  038%=      5-min Rain = 0
KCL2 191621Z 21005KT 22/07 A2999 RMK A01 T02210070  RH  038%=      5-min Rain = 0
KCL2 191622Z 19007KT 22/07 A2999 RMK A01 T02230068  RH  037%=      5-min Rain = 0
KCL2 191623Z 21006KT 22/07 A2999 RMK A01 T02220068  RH  037%=      5-min Rain = 0
KCL2 191624Z 22005KT 22/07 A2999 RMK A01 T02220069  RH  037%=      5-min Rain = 0
KCL2 191625Z 20006KT 22/07 A2999 RMK A01 T02210071  RH  038%=      5-min Rain = 0
KCL2 191626Z 19007KT 22/07 A2999 RMK A01 T02230070  RH  037%=      5-min Rain = 0
KCL2 191627Z 20006KT 22/07 A2999 RMK A01 T02230069  RH  037%=      5-min Rain = 0
KCL2 191628Z 21006KT 22/07 A2999 RMK A01 T02220069  RH  037%=      5-min Rain = 0
KCL2 191629Z 22007KT 22/07 A2999 RMK A01 T02220069  RH  037%=      5-min Rain = 0
KCL2 191630Z 20006KT 22/07 A2999 RMK A01 T02210070  RH  037%=      5-min Rain = 0
KCL2 191631Z 20007KT 22/07 A2999 RMK A01 T02220070  RH  037%=      5-min Rain = 0
KCL2 191632Z 21008KT 22/07 A2999 RMK A01 T02230068  RH  037%=      5-min Rain = 0
KCL2 191633Z 20010KT 22/07 A2999 RMK A01 T02230068  RH  037%=      5-min Rain = 0
KCL2 191634Z 19009KT 22/07 A2999 RMK A01 T02220067  RH  037%=      5-min Rain = 0
KCL2 191635Z 20008KT 22/07 A2999 RMK A01 T02220067  RH  037%=      5-min Rain = 0
KCL2 191636Z 21008KT 22/07 A2999 RMK A01 T02240068  RH  036%=      5-min Rain = 0
KCL2 191637Z 19008KT 22/07 A2999 RMK A01 T02240066  RH  036%=      5-min Rain = 0
KCL2 191638Z 20009KT 23/07 A2999 RMK A01 T02250068  RH  036%=      5-min Rain = 0
KCL2 191639Z 20008KT 23/07 A2999 RMK A01 T02250069  RH  036%=      5-min Rain = 0
KCL2 191640Z 21008KT 23/07 A2999 RMK A01 T02260069  RH  036%=      5-min Rain = 0
KCL2 191641Z 20008KT 23/07 A2999 RMK A01 T02260066  RH  036%=      5-min Rain = 0
KCL2 191642Z 19008KT 23/07 A2999 RMK A01 T02260067  RH  036%=      5-min Rain = 0
KCL2 191643Z 20010KT 23/06 A2999 RMK A01 T02260064  RH  035%=      5-min Rain = 0
KCL2 191644Z 19009KT 23/07 A2999 RMK A01 T02260065  RH  035%=      5-min Rain = 0
KCL2 191645Z 18009KT 23/07 A2999 RMK A01 T02250066  RH  036%=      5-min Rain = 0
KCL2 191646Z 18008KT 23/07 A2999 RMK A01 T02250066  RH  036%=      5-min Rain = 0
KCL2 191647Z 19011KT 23/07 A2999 RMK A01 T02260067  RH  036%=      5-min Rain = 0
KCL2 191648Z 19008KT 23/07 A2999 RMK A01 T02270065  RH  035%=      5-min Rain = 0
KCL2 191649Z 19009KT 23/07 A2999 RMK A01 T02250065  RH  035%=      5-min Rain = 0
KCL2 191650Z 19009KT 22/06 A2998 RMK A01 T02240064  RH  036%=      5-min Rain = 0
KCL2 191651Z 20010KT 22/07 A2998 RMK A01 T02240065  RH  036%=      5-min Rain = 0
KCL2 191652Z 20010KT 23/06 A2998 RMK A01 T02260064  RH  035%=      5-min Rain = 0
KCL2 191653Z 20009KT 23/07 A2998 RMK A01 T02260065  RH  035%=      5-min Rain = 0
KCL2 191654Z 20008KT 23/07 A2998 RMK A01 T02250065  RH  035%=      5-min Rain = 0
KCL2 191655Z 21009KT 23/06 A2998 RMK A01 T02250064  RH  035%=      5-min Rain = 0
KCL2 191656Z 20009KT 23/06 A2998 RMK A01 T02260063  RH  035%=      5-min Rain = 0
KCL2 191657Z 21006KT 23/06 A2998 RMK A01 T02270064  RH  035%=      5-min Rain = 0
KCL2 191658Z 22008KT 23/07 A2998 RMK A01 T02280066  RH  035%=      5-min Rain = 0
KCL2 191659Z 22008KT 23/07 A2998 RMK A01 T02310068  RH  035%=      5-min Rain = 0
KCL2 191700Z 22010KT 23/07 A2998 RMK A01 T02330068  RH  034%=      5-min Rain = 0
KCL2 191701Z 22007KT 23/07 A2998 RMK A01 T02320067  RH  034%=      5-min Rain = 0
KCL2 191702Z 22009G15KT 23/07 A2998 RMK A01 T02310067  RH  035%=      5-min Rain = 0
KCL2 191703Z 19010KT 23/06 A2998 RMK A01 T02310064  RH  034%=      5-min Rain = 0
KCL2 191704Z 18009KT 23/06 A2998 RMK A01 T02310064  RH  034%=      5-min Rain = 0
KCL2 191705Z 19010KT 23/06 A2998 RMK A01 T02310064  RH  034%=      5-min Rain = 0
KCL2 191706Z 20011KT 23/06 A2998 RMK A01 T02330061  RH  033%=      5-min Rain = 0
KCL2 191707Z 22009KT 23/06 A2998 RMK A01 T02320062  RH  033%=      5-min Rain = 0
KCL2 191708Z 21009KT 23/06 A2998 RMK A01 T02320061  RH  033%=      5-min Rain = 0
KCL2 191709Z 21008KT 23/06 A2998 RMK A01 T02310062  RH  034%=      5-min Rain = 0
KCL2 191710Z 22008KT 23/06 A2998 RMK A01 T02310064  RH  034%=      5-min Rain = 0
KCL2 191711Z 22010KT 23/07 A2998 RMK A01 T02320065  RH  034%=      5-min Rain = 0
KCL2 191712Z 23010KT 23/07 A2998 RMK A01 T02320065  RH  034%=      5-min Rain = 0
KCL2 191713Z 21009KT 23/07 A2998 RMK A01 T02330066  RH  034%=      5-min Rain = 0
KCL2 191714Z 20009KT 23/07 A2998 RMK A01 T02340066  RH  034%=      5-min Rain = 0
KCL2 191715Z 20009KT 23/07 A2998 RMK A01 T02330066  RH  034%=      5-min Rain = 0
KCL2 191716Z 21009KT 23/07 A2998 RMK A01 T02340065  RH  034%=      5-min Rain = 0
KCL2 191717Z 20009KT 23/07 A2997 RMK A01 T02340065  RH  034%=      5-min Rain = 0
KCL2 191718Z 22011KT 23/07 A2997 RMK A01 T02340065  RH  034%=      5-min Rain = 0
KCL2 191719Z 20009KT 24/07 A2997 RMK A01 T02360065  RH  033%=      5-min Rain = 0
KCL2 191720Z 22010KT 24/07 A2997 RMK A01 T02360066  RH  033%=      5-min Rain = 0
KCL2 191721Z 21012KT 24/07 A2997 RMK A01 T02380066  RH  033%=      5-min Rain = 0
KCL2 191722Z 22011KT 24/06 A2997 RMK A01 T02370064  RH  033%=      5-min Rain = 0
KCL2 191723Z 21012KT 24/06 A2997 RMK A01 T02350063  RH  033%=      5-min Rain = 0
KCL2 191724Z 21011KT 24/06 A2997 RMK A01 T02350063  RH  033%=      5-min Rain = 0
KCL2 191725Z 22011KT 24/06 A2997 RMK A01 T02360063  RH  033%=      5-min Rain = 0
KCL2 191726Z 21011KT 24/06 A2997 RMK A01 T02380062  RH  032%=      5-min Rain = 0
KCL2 191727Z 20011KT 24/06 A2997 RMK A01 T02380062  RH  032%=      5-min Rain = 0
KCL2 191728Z 18011KT 24/06 A2997 RMK A01 T02360064  RH  033%=      5-min Rain = 0
KCL2 191729Z 19010KT 24/07 A2997 RMK A01 T02350065  RH  033%=      5-min Rain = 0
KCL2 191730Z 20008KT 24/07 A2997 RMK A01 T02360067  RH  033%=      5-min Rain = 0
KCL2 191731Z 21008KT 24/07 A2997 RMK A01 T02380066  RH  033%=      5-min Rain = 0
KCL2 191732Z 21009KT 24/07 A2997 RMK A01 T02380067  RH  033%=      5-min Rain = 0
KCL2 191733Z 21007KT 24/07 A2997 RMK A01 T02420068  RH  033%=      5-min Rain = 0
KCL2 191734Z 21009KT 25/07 A2997 RMK A01 T02450066  RH  032%=      5-min Rain = 0
KCL2 191735Z 20010KT 24/07 A2997 RMK A01 T02440065  RH  032%=      5-min Rain = 0
KCL2 191736Z 19010KT 24/07 A2997 RMK A01 T02420066  RH  032%=      5-min Rain = 0
KCL2 191737Z 18008KT 24/07 A2997 RMK A01 T02400065  RH  032%=      5-min Rain = 0
KCL2 191738Z 20008G13KT 24/07 A2997 RMK A01 T02390066  RH  033%=      5-min Rain = 0
KCL2 191739Z 21011KT 24/07 A2997 RMK A01 T02380065  RH  033%=      5-min Rain = 0
KCL2 191740Z 22012KT 24/07 A2997 RMK A01 T02380066  RH  033%=      5-min Rain = 0
KCL2 191741Z 22010KT 24/07 A2997 RMK A01 T02380065  RH  033%=      5-min Rain = 0
KCL2 191742Z 22008KT 24/07 A2997 RMK A01 T02380065  RH  033%=      5-min Rain = 0
KCL2 191743Z 22010KT 24/07 A2997 RMK A01 T02380066  RH  033%=      5-min Rain = 0
KCL2 191744Z 22008KT 24/07 A2997 RMK A01 T02380068  RH  033%=      5-min Rain = 0
KCL2 191745Z 20008KT 24/07 A2997 RMK A01 T02380068  RH  034%=      5-min Rain = 0
KCL2 191746Z 19008KT 24/07 A2997 RMK A01 T02380069  RH  034%=      5-min Rain = 0
KCL2 191747Z 19010KT 24/07 A2997 RMK A01 T02410069  RH  033%=      5-min Rain = 0
KCL2 191748Z 18008KT 24/07 A2997 RMK A01 T02420069  RH  033%=      5-min Rain = 0
KCL2 191749Z 19011KT 24/07 A2997 RMK A01 T02420067  RH  033%=      5-min Rain = 0
KCL2 191750Z 20011KT 24/07 A2997 RMK A01 T02390066  RH  033%=      5-min Rain = 0
KCL2 191751Z 19009KT 24/07 A2997 RMK A01 T02370067  RH  034%=      5-min Rain = 0
KCL2 191752Z 20008KT 24/07 A2997 RMK A01 T02360068  RH  034%=      5-min Rain = 0
KCL2 191753Z 22010KT 24/07 A2997 RMK A01 T02370067  RH  034%=      5-min Rain = 0
KCL2 191754Z 21009KT 24/07 A2997 RMK A01 T02360066  RH  033%=      5-min Rain = 0
KCL2 191755Z 22010KT 24/07 A2997 RMK A01 T02360065  RH  033%=      5-min Rain = 0
KCL2 191756Z 21013KT 24/07 A2996 RMK A01 T02360066  RH  033%=      5-min Rain = 0
KCL2 191757Z 21011KT 24/07 A2997 RMK A01 T02360066  RH  033%=      5-min Rain = 0
KCL2 191758Z 20010KT 24/07 A2997 RMK A01 T02380069  RH  034%=      5-min Rain = 0
KCL2 191759Z 19010KT 24/07 A2997 RMK A01 T02380067  RH  033%=      5-min Rain = 0
KCL2 191800Z 20008KT 24/07 A2997 RMK A01 T02370068  RH  034%=      5-min Rain = 0
KCL2 191801Z 21009KT 24/07 A2997 RMK A01 T02380068  RH  034%=      5-min Rain = 0
KCL2 191802Z 21012KT 24/07 A2996 RMK A01 T02370067  RH  034%=      5-min Rain = 0
KCL2 191803Z 21014KT 24/07 A2996 RMK A01 T02360066  RH  033%=      5-min Rain = 0
KCL2 191804Z 21014KT 24/06 A2996 RMK A01 T02360064  RH  033%=      5-min Rain = 0
KCL2 191805Z 22013KT 24/06 A2996 RMK A01 T02360064  RH  033%=      5-min Rain = 0
KCL2 191806Z 21012KT 24/07 A2996 RMK A01 T02380065  RH  033%=      5-min Rain = 0
KCL2 191807Z 20008KT 24/06 A2996 RMK A01 T02370064  RH  033%=      5-min Rain = 0
KCL2 191808Z 20008KT 24/07 A2996 RMK A01 T02350065  RH  033%=      5-min Rain = 0
KCL2 191809Z 21009KT 24/07 A2996 RMK A01 T02360066  RH  033%=      5-min Rain = 0
KCL2 191810Z 20009KT 24/07 A2996 RMK A01 T02400067  RH  033%=      5-min Rain = 0
KCL2 191811Z 21011KT 24/07 A2996 RMK A01 T02430069  RH  033%=      5-min Rain = 0
KCL2 191812Z 22011KT 24/07 A2996 RMK A01 T02420066  RH  032%=      5-min Rain = 0
KCL2 191813Z 22012KT 24/07 A2996 RMK A01 T02410066  RH  032%=      5-min Rain = 0
KCL2 191814Z 21013KT 24/07 A2996 RMK A01 T02410065  RH  032%=      5-min Rain = 0
KCL2 191815Z 22010KT 24/06 A2996 RMK A01 T02400064  RH  032%=      5-min Rain = 0
KCL2 191816Z 21008KT 24/06 A2996 RMK A01 T02390064  RH  032%=      5-min Rain = 0
KCL2 191817Z 20011KT 24/07 A2996 RMK A01 T02390066  RH  033%=      5-min Rain = 0
KCL2 191818Z 20009KT 24/07 A2996 RMK A01 T02380066  RH  033%=      5-min Rain = 0
KCL2 191819Z 21011KT 24/07 A2995 RMK A01 T02380067  RH  033%=      5-min Rain = 0
KCL2 191820Z 21009KT 24/07 A2995 RMK A01 T02390068  RH  033%=      5-min Rain = 0
KCL2 191821Z 21011KT 24/07 A2995 RMK A01 T02390067  RH  033%=      5-min Rain = 0
KCL2 191822Z 22011KT 24/07 A2995 RMK A01 T02380066  RH  033%=      5-min Rain = 0
KCL2 191823Z 22010KT 24/06 A2995 RMK A01 T02380062  RH  032%=      5-min Rain = 0
KCL2 191824Z 23012KT 24/06 A2995 RMK A01 T02390064  RH  032%=      5-min Rain = 0
KCL2 191825Z 22010G15KT 24/06 A2995 RMK A01 T02410064  RH  032%=      5-min Rain = 0
KCL2 191826Z 19009G17KT 24/07 A2995 RMK A01 T02430065  RH  032%=      5-min Rain = 0
KCL2 191827Z 20013KT 25/06 A2995 RMK A01 T02450064  RH  031%=      5-min Rain = 0
KCL2 191828Z 19012KT 24/06 A2995 RMK A01 T02440064  RH  031%=      5-min Rain = 0
KCL2 191829Z 19010KT 25/07 A2995 RMK A01 T02450066  RH  032%=      5-min Rain = 0
KCL2 191830Z 19010KT 25/06 A2995 RMK A01 T02470064  RH  031%=      5-min Rain = 0
KCL2 191831Z 20010KT 25/06 A2995 RMK A01 T02460057  RH  030%=      5-min Rain = 0
KCL2 191832Z 18013KT 24/06 A2995 RMK A01 T02440056  RH  030%=      5-min Rain = 0
KCL2 191833Z 18011KT 24/06 A2995 RMK A01 T02440056  RH  030%=      5-min Rain = 0
KCL2 191834Z 19012KT 24/05 A2995 RMK A01 T02440050  RH  029%=      5-min Rain = 0
KCL2 191835Z 18012KT 25/05 A2994 RMK A01 T02450049  RH  028%=      5-min Rain = 0
KCL2 191836Z 17010KT 25/05 A2994 RMK A01 T02450051  RH  029%=      5-min Rain = 0
KCL2 191837Z 17010KT 25/05 A2994 RMK A01 T02450050  RH  028%=      5-min Rain = 0
KCL2 191838Z 15011KT 24/05 A2994 RMK A01 T02440049  RH  028%=      5-min Rain = 0
KCL2 191839Z 16013KT 24/05 A2994 RMK A01 T02430049  RH  029%=      5-min Rain = 0
KCL2 191840Z 21011KT 24/05 A2994 RMK A01 T02440053  RH  029%=      5-min Rain = 0
KCL2 191841Z 21011KT 25/06 A2994 RMK A01 T02460055  RH  029%=      5-min Rain = 0
KCL2 191842Z 16013KT 25/05 A2994 RMK A01 T02480051  RH  028%=      5-min Rain = 0
KCL2 191843Z 16014KT 25/05 A2994 RMK A01 T02500049  RH  027%=      5-min Rain = 0
KCL2 191844Z 16014KT 25/05 A2994 RMK A01 T02470051  RH  028%=      5-min Rain = 0
KCL2 191845Z 18011KT 25/05 A2994 RMK A01 T02460053  RH  029%=      5-min Rain = 0
KCL2 191846Z 19009KT 25/05 A2994 RMK A01 T02480053  RH  029%=      5-min Rain = 0
KCL2 191847Z 20012G17KT 25/05 A2994 RMK A01 T02490052  RH  028%=      5-min Rain = 0
KCL2 191848Z 20012KT 25/05 A2994 RMK A01 T02500048  RH  027%=      5-min Rain = 0
KCL2 191849Z 21011KT 25/05 A2994 RMK A01 T02490048  RH  027%=      5-min Rain = 0
KCL2 191850Z 19011KT 25/05 A2994 RMK A01 T02490046  RH  027%=      5-min Rain = 0
KCL2 191851Z 18006KT 25/05 A2994 RMK A01 T02480047  RH  027%=      5-min Rain = 0
KCL2 191852Z 21013G19KT 25/05 A2994 RMK A01 T02500050  RH  028%=      5-min Rain = 0
KCL2 191853Z 20014KT 25/04 A2993 RMK A01 T02520044  RH  026%=      5-min Rain = 0
KCL2 191854Z 19013KT 25/05 A2994 RMK A01 T02510045  RH  026%=      5-min Rain = 0
KCL2 191855Z 20015KT 25/04 A2993 RMK A01 T02490041  RH  026%=      5-min Rain = 0
KCL2 191856Z 19010KT 25/04 A2993 RMK A01 T02480040  RH  026%=      5-min Rain = 0
KCL2 191857Z 20013KT 25/04 A2993 RMK A01 T02480039  RH  026%=      5-min Rain = 0
KCL2 191858Z 20014KT 25/04 A2993 RMK A01 T02500040  RH  026%=      5-min Rain = 0
KCL2 191859Z 20014KT 25/04 A2993 RMK A01 T02500041  RH  026%=      5-min Rain = 0
KCL2 191900Z 20015KT 25/04 A2993 RMK A01 T02480043  RH  026%=      5-min Rain = 0
KCL2 191901Z 21012KT 25/04 A2993 RMK A01 T02470043  RH  027%=      5-min Rain = 0
KCL2 191902Z 20011KT 25/05 A2993 RMK A01 T02470045  RH  027%=      5-min Rain = 0
KCL2 191903Z 20015KT 25/05 A2993 RMK A01 T02490045  RH  027%=      5-min Rain = 0
KCL2 191904Z 18013KT 25/04 A2993 RMK A01 T02480044  RH  027%=      5-min Rain = 0
KCL2 191905Z 19012KT 25/05 A2993 RMK A01 T02470046  RH  027%=      5-min Rain = 0
KCL2 191906Z 18011G16KT 25/05 A2993 RMK A01 T02460048  RH  028%=      5-min Rain = 0
KCL2 191907Z 17008KT 25/05 A2993 RMK A01 T02460049  RH  028%=      5-min Rain = 0
KCL2 191908Z 19008KT 25/05 A2993 RMK A01 T02480051  RH  028%=      5-min Rain = 0
KCL2 191909Z 21012G19KT 25/05 A2993 RMK A01 T02510051  RH  028%=      5-min Rain = 0
KCL2 191910Z 19011KT 25/05 A2993 RMK A01 T02540051  RH  027%=      5-min Rain = 0
KCL2 191911Z 19015KT 25/05 A2993 RMK A01 T02530050  RH  027%=      5-min Rain = 0
KCL2 191912Z 19015KT 25/05 A2993 RMK A01 T02510049  RH  027%=      5-min Rain = 0
KCL2 191913Z 19012KT 25/05 A2993 RMK A01 T02480049  RH  028%=      5-min Rain = 0
KCL2 191914Z 18011KT 25/05 A2993 RMK A01 T02480051  RH  028%=      5-min Rain = 0
KCL2 191915Z 19012KT 25/05 A2992 RMK A01 T02470050  RH  028%=      5-min Rain = 0
KCL2 191916Z 20011KT 25/05 A2992 RMK A01 T02460049  RH  028%=      5-min Rain = 0
KCL2 191917Z 19012KT 24/05 A2992 RMK A01 T02440049  RH  028%=      5-min Rain = 0
KCL2 191918Z 18011KT 25/05 A2992 RMK A01 T02460050  RH  028%=      5-min Rain = 0
KCL2 191919Z 19011KT 25/05 A2992 RMK A01 T02470047  RH  027%=      5-min Rain = 0
KCL2 191920Z 19009KT 25/05 A2992 RMK A01 T02460049  RH  028%=      5-min Rain = 0
KCL2 191921Z 19010KT 25/05 A2992 RMK A01 T02480053  RH  029%=      5-min Rain = 0
KCL2 191922Z 21012KT 25/05 A2992 RMK A01 T02500053  RH  028%=      5-min Rain = 0
KCL2 191923Z 20013KT 25/05 A2992 RMK A01 T02510051  RH  028%=      5-min Rain = 0
KCL2 191924Z 18012KT 25/05 A2992 RMK A01 T02490050  RH  028%=      5-min Rain = 0
KCL2 191925Z 18011KT 25/05 A2992 RMK A01 T02490049  RH  028%=      5-min Rain = 0
KCL2 191926Z 16007KT 25/05 A2992 RMK A01 T02490049  RH  028%=      5-min Rain = 0
KCL2 191927Z 15006KT 25/05 A2992 RMK A01 T02500050  RH  027%=      5-min Rain = 0
KCL2 191928Z 15006KT 25/05 A2991 RMK A01 T02500050  RH  028%=      5-min Rain = 0
KCL2 191929Z 15007KT 25/05 A2991 RMK A01 T02500051  RH  028%=      5-min Rain = 0
KCL2 191930Z 16010KT 25/05 A2991 RMK A01 T02510050  RH  027%=      5-min Rain = 0
KCL2 191931Z 18009KT 25/05 A2991 RMK A01 T02530048  RH  027%=      5-min Rain = 0
KCL2 191932Z 17011KT 25/04 A2991 RMK A01 T02520044  RH  026%=      5-min Rain = 0
KCL2 191933Z 16013KT 25/04 A2991 RMK A01 T02540036  RH  024%=      5-min Rain = 0
KCL2 191934Z 17012KT 26/03 A2991 RMK A01 T02550033  RH  024%=      5-min Rain = 0
KCL2 191935Z 18011KT 26/03 A2991 RMK A01 T02550034  RH  024%=      5-min Rain = 0
KCL2 191936Z 18012KT 26/03 A2991 RMK A01 T02560034  RH  024%=      5-min Rain = 0
KCL2 191937Z 19012KT 26/03 A2991 RMK A01 T02550032  RH  024%=      5-min Rain = 0
KCL2 191938Z 20011KT 25/03 A2991 RMK A01 T02530032  RH  024%=      5-min Rain = 0
KCL2 191939Z 21011KT 25/03 A2991 RMK A01 T02530034  RH  024%=      5-min Rain = 0
KCL2 191940Z 19010G16KT 25/03 A2991 RMK A01 T02540034  RH  024%=      5-min Rain = 0
KCL2 191941Z 17013KT 26/03 A2991 RMK A01 T02550031  RH  023%=      5-min Rain = 0
KCL2 191942Z 18013KT 26/03 A2991 RMK A01 T02550029  RH  023%=      5-min Rain = 0
KCL2 191943Z 18015KT 26/03 A2991 RMK A01 T02550025  RH  022%=      5-min Rain = 0
KCL2 191944Z 19014KT 26/03 A2991 RMK A01 T02560025  RH  022%=      5-min Rain = 0
KCL2 191945Z 19013KT 26/03 A2991 RMK A01 T02550026  RH  023%=      5-min Rain = 0
KCL2 191946Z 20008KT 25/03 A2991 RMK A01 T02540028  RH  023%=      5-min Rain = 0
KCL2 191947Z 20010KT 26/03 A2991 RMK A01 T02560028  RH  023%=      5-min Rain = 0
KCL2 191948Z 18008KT 26/03 A2991 RMK A01 T02560028  RH  023%=      5-min Rain = 0
KCL2 191949Z 18009KT 26/03 A2991 RMK A01 T02550029  RH  023%=      5-min Rain = 0
KCL2 191950Z 19008G13KT 26/03 A2991 RMK A01 T02560032  RH  023%=      5-min Rain = 0
KCL2 191951Z 19008KT 26/03 A2991 RMK A01 T02580033  RH  023%=      5-min Rain = 0
KCL2 191952Z 20009KT 26/03 A2991 RMK A01 T02600034  RH  023%=      5-min Rain = 0
KCL2 191953Z 19010KT 26/03 A2991 RMK A01 T02610031  RH  023%=      5-min Rain = 0
KCL2 191954Z 18010KT 26/03 A2991 RMK A01 T02620033  RH  023%=      5-min Rain = 0
KCL2 191955Z 17010KT 26/03 A299 RMK A01 T02620033  RH  023%=      5-min Rain = 0
KCL2 191956Z 17012KT 26/03 A299 RMK A01 T02580031  RH  023%=      5-min Rain = 0
KCL2 191957Z 17013KT 26/03 A299 RMK A01 T02550031  RH  023%=      5-min Rain = 0
KCL2 191958Z 17011KT 25/03 A299 RMK A01 T02520031  RH  024%=      5-min Rain = 0
KCL2 191959Z 17014KT 25/03 A299 RMK A01 T02520031  RH  024%=      5-min Rain = 0
KCL2 192000Z 17014KT 25/03 A299 RMK A01 T02530031  RH  024%=      5-min Rain = 0
KCL2 192001Z 18014KT 25/03 A299 RMK A01 T02510030  RH  024%=      5-min Rain = 0
KCL2 192002Z 17010KT 25/03 A299 RMK A01 T02510032  RH  024%=      5-min Rain = 0
KCL2 192003Z 17011KT 25/03 A299 RMK A01 T02520032  RH  024%=      5-min Rain = 0
KCL2 192004Z 16010KT 25/03 A299 RMK A01 T02520032  RH  024%=      5-min Rain = 0
KCL2 192005Z 18011G16KT 25/03 A299 RMK A01 T02510031  RH  024%=      5-min Rain = 0
KCL2 192006Z 19014KT 25/03 A299 RMK A01 T02510030  RH  024%=      5-min Rain = 0
KCL2 192007Z 18012KT 25/03 A299 RMK A01 T02510030  RH  024%=      5-min Rain = 0
KCL2 192008Z 18010KT 25/03 A299 RMK A01 T02520029  RH  024%=      5-min Rain = 0
KCL2 192009Z 19009KT 25/03 A299 RMK A01 T02530029  RH  023%=      5-min Rain = 0
KCL2 192010Z 19010KT 25/03 A299 RMK A01 T02530029  RH  023%=      5-min Rain = 0
KCL2 192011Z 17011KT 25/03 A299 RMK A01 T02540030  RH  023%=      5-min Rain = 0
KCL2 192012Z 19011KT 26/03 A299 RMK A01 T02550032  RH  024%=      5-min Rain = 0
KCL2 192013Z 19008KT 26/03 A299 RMK A01 T02550032  RH  023%=      5-min Rain = 0
KCL2 192014Z 18009KT 26/03 A299 RMK A01 T02550034  RH  024%=      5-min Rain = 0
KCL2 192015Z 17013KT 26/03 A299 RMK A01 T02580034  RH  024%=      5-min Rain = 0
KCL2 192016Z 18011KT 26/03 A299 RMK A01 T02560032  RH  023%=      5-min Rain = 0
KCL2 192017Z 18011KT 25/03 A299 RMK A01 T02530031  RH  024%=      5-min Rain = 0
KCL2 192018Z 18009KT 25/03 A299 RMK A01 T02520032  RH  024%=      5-min Rain = 0
KCL2 192019Z 18009KT 25/03 A299 RMK A01 T02520033  RH  024%=      5-min Rain = 0
KCL2 192020Z 18009KT 25/03 A299 RMK A01 T02520033  RH  024%=      5-min Rain = 0
KCL2 192021Z 18012KT 25/03 A299 RMK A01 T02530033  RH  024%=      5-min Rain = 0
KCL2 192022Z 18007KT 25/03 A2989 RMK A01 T02540031  RH  024%=      5-min Rain = 0
KCL2 192023Z 18008KT 25/03 A2989 RMK A01 T02540033  RH  024%=      5-min Rain = 0
KCL2 192024Z 18008KT 26/04 A2989 RMK A01 T02580035  RH  024%=      5-min Rain = 0
KCL2 192025Z 17011G16KT 26/04 A2989 RMK A01 T02640037  RH  023%=      5-min Rain = 0
KCL2 192026Z 16014KT 27/03 A2989 RMK A01 T02650032  RH  022%=      5-min Rain = 0
KCL2 192027Z 17013KT 26/03 A2989 RMK A01 T02610030  RH  022%=      5-min Rain = 0
KCL2 192028Z 17013KT 26/03 A2989 RMK A01 T02590029  RH  023%=      5-min Rain = 0
KCL2 192029Z 17014KT 26/03 A2989 RMK A01 T02570029  RH  023%=      5-min Rain = 0
KCL2 192030Z 17012KT 26/03 A2989 RMK A01 T02550028  RH  023%=      5-min Rain = 0
KCL2 192031Z 16012G18KT 25/03 A2989 RMK A01 T02540028  RH  023%=      5-min Rain = 0
KCL2 192032Z 17017KT 25/03 A2989 RMK A01 T02540026  RH  023%=      5-min Rain = 0
KCL2 192033Z 20016KT 25/02 A2989 RMK A01 T02540024  RH  022%=      5-min Rain = 0
KCL2 192034Z 21012KT 25/02 A2989 RMK A01 T02540024  RH  022%=      5-min Rain = 0
KCL2 192035Z 20011KT 26/03 A2989 RMK A01 T02560027  RH  023%=      5-min Rain = 0
KCL2 192036Z 17011KT 26/03 A2989 RMK A01 T02590028  RH  022%=      5-min Rain = 0
KCL2 192037Z 17013G18KT 26/03 A2989 RMK A01 T02610029  RH  022%=      5-min Rain = 0
KCL2 192038Z 18014KT 26/03 A2989 RMK A01 T02600026  RH  022%=      5-min Rain = 0
KCL2 192039Z 18012G17KT 26/03 A2989 RMK A01 T02580026  RH  022%=      5-min Rain = 0
KCL2 192040Z 18011KT 26/03 A2989 RMK A01 T02560026  RH  022%=      5-min Rain = 0
KCL2 192041Z 19013KT 26/03 A2989 RMK A01 T02580026  RH  022%=      5-min Rain = 0
KCL2 192042Z 20014KT 26/03 A2989 RMK A01 T02580026  RH  022%=      5-min Rain = 0
KCL2 192043Z 19010KT 26/03 A2989 RMK A01 T02580027  RH  022%=      5-min Rain = 0
KCL2 192044Z 20011KT 26/03 A2989 RMK A01 T02590027  RH  022%=      5-min Rain = 0
KCL2 192045Z 19010KT 26/03 A2989 RMK A01 T02600028  RH  022%=      5-min Rain = 0
KCL2 192046Z 17009KT 26/03 A2989 RMK A01 T02600028  RH  022%=      5-min Rain = 0
KCL2 192047Z 17009KT 26/03 A2989 RMK A01 T02610029  RH  022%=      5-min Rain = 0
KCL2 192048Z 16010KT 26/03 A2989 RMK A01 T02600028  RH  022%=      5-min Rain = 0
KCL2 192049Z 15012KT 26/03 A2988 RMK A01 T02590027  RH  022%=      5-min Rain = 0
KCL2 192050Z 19015G20KT 26/03 A2988 RMK A01 T02580028  RH  022%=      5-min Rain = 0
KCL2 192051Z 18013KT 26/03 A2989 RMK A01 T02580028  RH  022%=      5-min Rain = 0
KCL2 192052Z 18013KT 26/03 A2988 RMK A01 T02570028  RH  023%=      5-min Rain = 0
KCL2 192053Z 16015KT 26/03 A2988 RMK A01 T02560028  RH  023%=      5-min Rain = 0
KCL2 192054Z 16013KT 26/03 A2988 RMK A01 T02550030  RH  023%=      5-min Rain = 0
KCL2 192055Z 19015KT 25/03 A2988 RMK A01 T02540031  RH  023%=      5-min Rain = 0
KCL2 192056Z 17009KT 25/03 A2988 RMK A01 T02530031  RH  024%=      5-min Rain = 0
KCL2 192057Z 17008KT 26/03 A2988 RMK A01 T02550033  RH  024%=      5-min Rain = 0
KCL2 192058Z 16012KT 26/03 A2988 RMK A01 T02570033  RH  023%=      5-min Rain = 0
KCL2 192059Z 16011KT 26/03 A2988 RMK A01 T02570031  RH  023%=      5-min Rain = 0
KCL2 192100Z 19012KT 26/03 A2988 RMK A01 T02560031  RH  023%=      5-min Rain = 0
KCL2 192101Z 17007KT 26/03 A2988 RMK A01 T02560032  RH  023%=      5-min Rain = 0
KCL2 192102Z 17011KT 26/03 A2988 RMK A01 T02580033  RH  023%=      5-min Rain = 0
KCL2 192103Z 16012KT 26/03 A2988 RMK A01 T02590034  RH  023%=      5-min Rain = 0
KCL2 192104Z 15011KT 26/03 A2988 RMK A01 T02580033  RH  023%=      5-min Rain = 0
KCL2 192105Z 18009KT 26/03 A2988 RMK A01 T02570033  RH  023%=      5-min Rain = 0
KCL2 192106Z 17012KT 26/03 A2988 RMK A01 T02580031  RH  023%=      5-min Rain = 0
KCL2 192107Z 18012KT 26/03 A2988 RMK A01 T02580031  RH  023%=      5-min Rain = 0
KCL2 192108Z 17012KT 26/03 A2988 RMK A01 T02570032  RH  023%=      5-min Rain = 0
KCL2 192109Z 16011KT 26/03 A2988 RMK A01 T02560032  RH  023%=      5-min Rain = 0
KCL2 192110Z 16012KT 26/03 A2988 RMK A01 T02560034  RH  024%=      5-min Rain = 0
KCL2 192111Z 17010KT 26/03 A2988 RMK A01 T02560034  RH  024%=      5-min Rain = 0
KCL2 192112Z 16012KT 26/04 A2988 RMK A01 T02560035  RH  024%=      5-min Rain = 0
KCL2 192113Z 16011KT 26/04 A2988 RMK A01 T02560035  RH  024%=      5-min Rain = 0
KCL2 192114Z 17010KT 26/04 A2988 RMK A01 T02550036  RH  024%=      5-min Rain = 0
KCL2 192115Z 17012KT 26/04 A2988 RMK A01 T02560036  RH  024%=      5-min Rain = 0
KCL2 192116Z 16011KT 26/04 A2988 RMK A01 T02560035  RH  024%=      5-min Rain = 0
KCL2 192117Z 18011KT 26/04 A2988 RMK A01 T02560036  RH  024%=      5-min Rain = 0
KCL2 192118Z 17013KT 26/04 A2988 RMK A01 T02560036  RH  024%=      5-min Rain = 0
KCL2 192119Z 17013KT 25/04 A2988 RMK A01 T02540037  RH  024%=      5-min Rain = 0
KCL2 192120Z 17011G16KT 25/04 A2988 RMK A01 T02540038  RH  025%=      5-min Rain = 0
KCL2 192121Z 17014KT 25/04 A2988 RMK A01 T02540039  RH  025%=      5-min Rain = 0
KCL2 192122Z 17013KT 25/04 A2988 RMK A01 T02540039  RH  025%=      5-min Rain = 0
KCL2 192123Z 18013KT 26/04 A2988 RMK A01 T02550040  RH  025%=      5-min Rain = 0
KCL2 192124Z 19012KT 25/04 A2988 RMK A01 T02540040  RH  025%=      5-min Rain = 0
KCL2 192125Z 19012KT 25/04 A2988 RMK A01 T02530040  RH  025%=      5-min Rain = 0
KCL2 192126Z 19014KT 25/04 A2987 RMK A01 T02530041  RH  025%=      5-min Rain = 0
KCL2 192127Z 18010KT 25/04 A2988 RMK A01 T02530043  RH  026%=      5-min Rain = 0
KCL2 192128Z 18010KT 25/04 A2988 RMK A01 T02520043  RH  026%=      5-min Rain = 0
KCL2 192129Z 18013KT 25/05 A2987 RMK A01 T02510045  RH  026%=      5-min Rain = 0
KCL2 192130Z 17008G13KT 25/05 A2988 RMK A01 T02510047  RH  027%=      5-min Rain = 0
KCL2 192131Z 17011G16KT 25/05 A2988 RMK A01 T02530049  RH  027%=      5-min Rain = 0
KCL2 192132Z 16015KT 25/05 A2988 RMK A01 T02540049  RH  027%=      5-min Rain = 0
KCL2 192133Z 17014KT 25/05 A2988 RMK A01 T02520048  RH  027%=      5-min Rain = 0
KCL2 192134Z 17012KT 25/05 A2988 RMK A01 T02500050  RH  027%=      5-min Rain = 0
KCL2 192135Z 17011KT 25/05 A2988 RMK A01 T02500050  RH  028%=      5-min Rain = 0
KCL2 192136Z 17013G18KT 25/05 A2988 RMK A01 T02500051  RH  028%=      5-min Rain = 0
KCL2 192137Z 17014KT 25/05 A2988 RMK A01 T02500050  RH  028%=      5-min Rain = 0
KCL2 192138Z 17014KT 25/05 A2988 RMK A01 T02500051  RH  028%=      5-min Rain = 0
KCL2 192139Z 17014KT 25/05 A2988 RMK A01 T02490051  RH  028%=      5-min Rain = 0
KCL2 192140Z 16016KT 25/05 A2988 RMK A01 T02490051  RH  028%=      5-min Rain = 0
KCL2 192141Z 17013KT 25/05 A2988 RMK A01 T02480051  RH  028%=      5-min Rain = 0
KCL2 192142Z 17012KT 25/05 A2988 RMK A01 T02480052  RH  028%=      5-min Rain = 0
KCL2 192143Z 18014KT 25/05 A2988 RMK A01 T02490052  RH  028%=      5-min Rain = 0
KCL2 192144Z 17013KT 25/05 A2988 RMK A01 T02490053  RH  028%=      5-min Rain = 0
KCL2 192145Z 17012KT 25/05 A2988 RMK A01 T02490054  RH  028%=      5-min Rain = 0
KCL2 192146Z 17013KT 25/05 A2988 RMK A01 T02480054  RH  029%=      5-min Rain = 0
KCL2 192147Z 17014KT 25/05 A2988 RMK A01 T02470053  RH  029%=      5-min Rain = 0
KCL2 192148Z 17013KT 24/05 A2988 RMK A01 T02440053  RH  029%=      5-min Rain = 0
KCL2 192149Z 18014KT 24/05 A2988 RMK A01 T02430053  RH  029%=      5-min Rain = 0
KCL2 192150Z 18013KT 24/05 A2988 RMK A01 T02420054  RH  030%=      5-min Rain = 0
KCL2 192151Z 18012KT 24/05 A2988 RMK A01 T02420054  RH  030%=      5-min Rain = 0
KCL2 192152Z 18012KT 24/06 A2987 RMK A01 T02430055  RH  030%=      5-min Rain = 0
KCL2 192153Z 18012KT 24/06 A2987 RMK A01 T02440055  RH  030%=      5-min Rain = 0
KCL2 192154Z 18012KT 25/06 A2987 RMK A01 T02460056  RH  029%=      5-min Rain = 0
KCL2 192155Z 16011KT 25/06 A2987 RMK A01 T02470056  RH  029%=      5-min Rain = 0
KCL2 192156Z 16010KT 25/06 A2988 RMK A01 T02460056  RH  029%=      5-min Rain = 0
KCL2 192157Z 17012KT 25/06 A2988 RMK A01 T02460057  RH  030%=      5-min Rain = 0
KCL2 192158Z 17012KT 24/06 A2987 RMK A01 T02440056  RH  030%=      5-min Rain = 0
KCL2 192159Z 18013KT 24/06 A2987 RMK A01 T02420057  RH  030%=      5-min Rain = 0
KCL2 192200Z 16010KT 24/06 A2987 RMK A01 T02420058  RH  030%=      5-min Rain = 0
KCL2 192201Z 15010KT 24/06 A2987 RMK A01 T02410058  RH  031%=      5-min Rain = 0
KCL2 192202Z 16012G17KT 24/06 A2987 RMK A01 T02400058  RH  031%=      5-min Rain = 0
KCL2 192203Z 16010KT 24/06 A2987 RMK A01 T02390057  RH  031%=      5-min Rain = 0
KCL2 192204Z 17011KT 24/06 A2987 RMK A01 T02380057  RH  031%=      5-min Rain = 0
KCL2 192205Z 17010KT 24/06 A2987 RMK A01 T02380057  RH  031%=      5-min Rain = 0
KCL2 192206Z 17011KT 24/06 A2987 RMK A01 T02370057  RH  031%=      5-min Rain = 0
KCL2 192207Z 17011KT 24/06 A2987 RMK A01 T02370056  RH  031%=      5-min Rain = 0
KCL2 192208Z 18011KT 24/06 A2987 RMK A01 T02360056  RH  031%=      5-min Rain = 0
KCL2 192209Z 17010KT 24/06 A2987 RMK A01 T02360056  RH  031%=      5-min Rain = 0
KCL2 192210Z 17011KT 24/06 A2987 RMK A01 T02350055  RH  031%=      5-min Rain = 0
KCL2 192211Z 17011KT 24/05 A2987 RMK A01 T02350054  RH  031%=      5-min Rain = 0
KCL2 192212Z 17010KT 24/06 A2987 RMK A01 T02350055  RH  031%=      5-min Rain = 0
KCL2 192213Z 17010KT 23/06 A2987 RMK A01 T02340055  RH  031%=      5-min Rain = 0
KCL2 192214Z 18010KT 23/05 A2987 RMK A01 T02340054  RH  031%=      5-min Rain = 0
KCL2 192215Z 17011KT 23/05 A2987 RMK A01 T02340053  RH  031%=      5-min Rain = 0
KCL2 192216Z 17011KT 23/05 A2987 RMK A01 T02340053  RH  031%=      5-min Rain = 0
KCL2 192217Z 17010KT 24/05 A2987 RMK A01 T02350053  RH  031%=      5-min Rain = 0
KCL2 192218Z 17010KT 24/05 A2987 RMK A01 T02360054  RH  031%=      5-min Rain = 0
KCL2 192219Z 17011KT 24/05 A2987 RMK A01 T02370054  RH  031%=      5-min Rain = 0
KCL2 192220Z 16008KT 24/05 A2987 RMK A01 T02380054  RH  030%=      5-min Rain = 0
KCL2 192221Z 16008KT 24/06 A2987 RMK A01 T02400055  RH  030%=      5-min Rain = 0
KCL2 192222Z 16010KT 24/06 A2987 RMK A01 T02410055  RH  030%=      5-min Rain = 0
KCL2 192223Z 16010KT 24/05 A2987 RMK A01 T02410054  RH  030%=      5-min Rain = 0
KCL2 192224Z 17009KT 24/05 A2987 RMK A01 T02400053  RH  030%=      5-min Rain = 0
KCL2 192225Z 16010KT 24/05 A2987 RMK A01 T02390054  RH  030%=      5-min Rain = 0
KCL2 192226Z 16010KT 24/05 A2987 RMK A01 T02390053  RH  030%=      5-min Rain = 0
KCL2 192227Z 16010KT 24/05 A2987 RMK A01 T02380051  RH  030%=      5-min Rain = 0
KCL2 192228Z 16010KT 24/05 A2987 RMK A01 T02400052  RH  030%=      5-min Rain = 0
KCL2 192229Z 15009KT 24/05 A2987 RMK A01 T02410051  RH  029%=      5-min Rain = 0
KCL2 192230Z 16009KT 24/05 A2987 RMK A01 T02420051  RH  029%=      5-min Rain = 0
KCL2 192231Z 16010KT 24/05 A2987 RMK A01 T02420050  RH  029%=      5-min Rain = 0
KCL2 192232Z 15009KT 24/05 A2987 RMK A01 T02430050  RH  029%=      5-min Rain = 0
KCL2 192233Z 16008KT 24/05 A2987 RMK A01 T02430051  RH  029%=      5-min Rain = 0
KCL2 192234Z 15011KT 25/05 A2987 RMK A01 T02450051  RH  029%=      5-min Rain = 0
KCL2 192235Z 16008KT 24/05 A2987 RMK A01 T02440050  RH  028%=      5-min Rain = 0
KCL2 192236Z 15008KT 24/05 A2987 RMK A01 T02440050  RH  029%=      5-min Rain = 0
KCL2 192237Z 15008KT 25/05 A2987 RMK A01 T02450051  RH  029%=      5-min Rain = 0
KCL2 192238Z 15009KT 25/05 A2987 RMK A01 T02450051  RH  029%=      5-min Rain = 0
KCL2 192239Z 16012KT 25/05 A2987 RMK A01 T02450051  RH  029%=      5-min Rain = 0
KCL2 192240Z 16011KT 25/05 A2986 RMK A01 T02450049  RH  028%=      5-min Rain = 0
KCL2 192241Z 16009KT 25/05 A2986 RMK A01 T02450050  RH  028%=      5-min Rain = 0
KCL2 192242Z 16009KT 25/05 A2986 RMK A01 T02450051  RH  029%=      5-min Rain = 0
KCL2 192243Z 16008KT 25/05 A2986 RMK A01 T02450050  RH  028%=      5-min Rain = 0
KCL2 192244Z 15009KT 25/05 A2986 RMK A01 T02450050  RH  028%=      5-min Rain = 0
KCL2 192245Z 16010KT 25/05 A2986 RMK A01 T02450049  RH  028%=      5-min Rain = 0
KCL2 192246Z 15012KT 25/05 A2986 RMK A01 T02450049  RH  028%=      5-min Rain = 0
KCL2 192247Z 16015KT 25/05 A2986 RMK A01 T02450048  RH  028%=      5-min Rain = 0
KCL2 192248Z 15013KT 25/05 A2986 RMK A01 T02450048  RH  028%=      5-min Rain = 0
KCL2 192249Z 16013G18KT 25/05 A2986 RMK A01 T02450049  RH  028%=      5-min Rain = 0
KCL2 192250Z 16013KT 25/05 A2986 RMK A01 T02450049  RH  028%=      5-min Rain = 0
KCL2 192251Z 16011KT 25/05 A2986 RMK A01 T02450049  RH  028%=      5-min Rain = 0
KCL2 192252Z 16012KT 25/05 A2986 RMK A01 T02450049  RH  028%=      5-min Rain = 0
KCL2 192253Z 17012KT 24/05 A2986 RMK A01 T02440049  RH  028%=      5-min Rain = 0
KCL2 192254Z 17011KT 24/05 A2986 RMK A01 T02440049  RH  028%=      5-min Rain = 0
KCL2 192255Z 17013KT 24/05 A2986 RMK A01 T02440049  RH  028%=      5-min Rain = 0
KCL2 192256Z 17010KT 24/05 A2986 RMK A01 T02430050  RH  029%=      5-min Rain = 0
KCL2 192257Z 17012KT 24/05 A2986 RMK A01 T02430050  RH  029%=      5-min Rain = 0
KCL2 192258Z 17009KT 24/05 A2986 RMK A01 T02430051  RH  029%=      5-min Rain = 0
KCL2 192259Z 16011KT 24/05 A2986 RMK A01 T02420051  RH  029%=      5-min Rain = 0
KCL2 192300Z 16011KT 24/05 A2986 RMK A01 T02410051  RH  029%=      5-min Rain = 0
KCL2 192301Z 17010KT 24/05 A2986 RMK A01 T02410052  RH  029%=      5-min Rain = 0
KCL2 192302Z 17013KT 24/05 A2986 RMK A01 T02400051  RH  029%=      5-min Rain = 0
KCL2 192303Z 17011KT 24/05 A2986 RMK A01 T02400051  RH  029%=      5-min Rain = 0
KCL2 192304Z 17010KT 24/05 A2986 RMK A01 T02400051  RH  030%=      5-min Rain = 0
KCL2 192305Z 16010KT 24/05 A2986 RMK A01 T02390051  RH  030%=      5-min Rain = 0
KCL2 192306Z 17013KT 24/05 A2986 RMK A01 T02390051  RH  030%=      5-min Rain = 0
KCL2 192307Z 17012KT 24/05 A2986 RMK A01 T02390051  RH  030%=      5-min Rain = 0
KCL2 192308Z 17010KT 24/05 A2986 RMK A01 T02380051  RH  030%=      5-min Rain = 0
KCL2 192309Z 17011KT 24/05 A2986 RMK A01 T02370051  RH  030%=      5-min Rain = 0
KCL2 192310Z 17011KT 24/05 A2986 RMK A01 T02370051  RH  030%=      5-min Rain = 0
KCL2 192311Z 16010G15KT 24/05 A2986 RMK A01 T02370051  RH  030%=      5-min Rain = 0
KCL2 192312Z 17008KT 24/05 A2986 RMK A01 T02360051  RH  030%=      5-min Rain = 0
KCL2 192313Z 17011KT 24/05 A2986 RMK A01 T02360051  RH  030%=      5-min Rain = 0
KCL2 192314Z 16013KT 24/05 A2986 RMK A01 T02350051  RH  030%=      5-min Rain = 0
KCL2 192315Z 17012KT 23/05 A2986 RMK A01 T02340050  RH  030%=      5-min Rain = 0
KCL2 192316Z 17013KT 23/05 A2986 RMK A01 T02340050  RH  030%=      5-min Rain = 0
KCL2 192317Z 17011KT 23/05 A2986 RMK A01 T02340050  RH  030%=      5-min Rain = 0
KCL2 192318Z 17010KT 23/05 A2986 RMK A01 T02330049  RH  030%=      5-min Rain = 0
KCL2 192319Z 17008KT 23/05 A2986 RMK A01 T02320050  RH  031%=      5-min Rain = 0
KCL2 192320Z 17009KT 23/05 A2986 RMK A01 T02310049  RH  031%=      5-min Rain = 0
KCL2 192321Z 17009KT 23/05 A2986 RMK A01 T02300050  RH  031%=      5-min Rain = 0
KCL2 192322Z 17009KT 23/05 A2986 RMK A01 T02280049  RH  031%=      5-min Rain = 0
KCL2 192323Z 16007KT 23/05 A2986 RMK A01 T02280049  RH  031%=      5-min Rain = 0
KCL2 192324Z 16008KT 23/05 A2986 RMK A01 T02280049  RH  031%=      5-min Rain = 0
KCL2 192325Z 16009KT 23/05 A2986 RMK A01 T02270049  RH  031%=      5-min Rain = 0
KCL2 192326Z 15010KT 23/05 A2986 RMK A01 T02270049  RH  031%=      5-min Rain = 0
KCL2 192327Z 16008KT 23/05 A2986 RMK A01 T02270049  RH  031%=      5-min Rain = 0
KCL2 192328Z 16007KT 23/05 A2986 RMK A01 T02260049  RH  032%=      5-min Rain = 0
KCL2 192329Z 16008KT 23/05 A2986 RMK A01 T02250048  RH  032%=      5-min Rain = 0
KCL2 192330Z 15009KT 22/05 A2986 RMK A01 T02230048  RH  032%=      5-min Rain = 0
KCL2 192331Z 16007KT 22/05 A2986 RMK A01 T02230048  RH  032%=      5-min Rain = 0
KCL2 192332Z 16007KT 22/05 A2986 RMK A01 T02230048  RH  032%=      5-min Rain = 0
KCL2 192333Z 16008KT 22/05 A2986 RMK A01 T02210047  RH  032%=      5-min Rain = 0
KCL2 192334Z 16007KT 22/05 A2986 RMK A01 T02210047  RH  032%=      5-min Rain = 0
KCL2 192335Z 16008KT 22/05 A2986 RMK A01 T02200047  RH  032%=      5-min Rain = 0
KCL2 192336Z 16008KT 22/05 A2986 RMK A01 T02190047  RH  032%=      5-min Rain = 0
KCL2 192337Z 16007KT 22/05 A2986 RMK A01 T02180046  RH  032%=      5-min Rain = 0
KCL2 192338Z 16007KT 22/05 A2986 RMK A01 T02180046  RH  033%=      5-min Rain = 0
KCL2 192339Z 16007KT 22/05 A2986 RMK A01 T02190047  RH  033%=      5-min Rain = 0
KCL2 192340Z 15007KT 22/05 A2986 RMK A01 T02170046  RH  033%=      5-min Rain = 0
KCL2 192341Z 16006KT 22/05 A2986 RMK A01 T02160046  RH  033%=      5-min Rain = 0
KCL2 192342Z 15007KT 22/05 A2986 RMK A01 T02150046  RH  033%=      5-min Rain = 0
KCL2 192343Z 16007KT 21/05 A2986 RMK A01 T02130045  RH  033%=      5-min Rain = 0
KCL2 192344Z 15008KT 21/05 A2986 RMK A01 T02130045  RH  033%=      5-min Rain = 0
KCL2 192345Z 15009KT 21/05 A2986 RMK A01 T02130045  RH  033%=      5-min Rain = 0
KCL2 192346Z 16008KT 21/05 A2986 RMK A01 T02130045  RH  033%=      5-min Rain = 0
KCL2 192347Z 16008KT 21/05 A2986 RMK A01 T02130046  RH  033%=      5-min Rain = 0
KCL2 192348Z 16010KT 21/05 A2986 RMK A01 T02120045  RH  033%=      5-min Rain = 0
KCL2 192349Z 15008KT 21/05 A2986 RMK A01 T02130045  RH  033%=      5-min Rain = 0
KCL2 192350Z 16008KT 21/05 A2986 RMK A01 T02130045  RH  033%=      5-min Rain = 0
KCL2 192351Z 15008KT 21/05 A2986 RMK A01 T02130045  RH  033%=      5-min Rain = 0
KCL2 192352Z 16008KT 21/05 A2986 RMK A01 T02120045  RH  034%=      5-min Rain = 0
KCL2 192353Z 16009KT 21/05 A2986 RMK A01 T02110045  RH  034%=      5-min Rain = 0
KCL2 192354Z 16009KT 21/05 A2986 RMK A01 T02110045  RH  034%=      5-min Rain = 0
KCL2 192355Z 16008KT 21/05 A2986 RMK A01 T02110045  RH  034%=      5-min Rain = 0
KCL2 192356Z 16008KT 21/05 A2986 RMK A01 T02110045  RH  034%=      5-min Rain = 0
KCL2 192357Z 16007KT 21/05 A2986 RMK A01 T02100045  RH  034%=      5-min Rain = 0
KCL2 192358Z 16008KT 21/05 A2986 RMK A01 T02090045  RH  034%=      5-min Rain = 0
KCL2 192359Z 16007KT 21/05 A2986 RMK A01 T02080045  RH  034%=      5-min Rain = 0
KCL2 200000Z 16007KT 21/05 A2986 RMK A01 T02070045  RH  035%=      5-min Rain = 0
KCL2 200001Z 16008KT 21/05 A2986 RMK A01 T02060045  RH  035%=      5-min Rain = 0
KCL2 200002Z 16007KT 21/05 A2986 RMK A01 T02060046  RH  035%=      5-min Rain = 0
KCL2 200003Z 16008KT 21/05 A2986 RMK A01 T02050045  RH  035%=      5-min Rain = 0
KCL2 200004Z 16008KT 21/05 A2986 RMK A01 T02050046  RH  035%=      5-min Rain = 0
KCL2 200005Z 16007KT 21/05 A2986 RMK A01 T02050046  RH  035%=      5-min Rain = 0
KCL2 200006Z 16008KT 21/05 A2986 RMK A01 T02050046  RH  035%=      5-min Rain = 0
KCL2 200007Z 16009KT 21/05 A2986 RMK A01 T02050046  RH  035%=      5-min Rain = 0
KCL2 200008Z 16008KT 21/05 A2986 RMK A01 T02050046  RH  035%=      5-min Rain = 0
KCL2 200009Z 16008KT 21/05 A2986 RMK A01 T02060047  RH  035%=      5-min Rain = 0
KCL2 200010Z 15007KT 21/05 A2986 RMK A01 T02060047  RH  035%=      5-min Rain = 0
KCL2 200011Z 15007KT 21/05 A2986 RMK A01 T02050047  RH  035%=      5-min Rain = 0
KCL2 200012Z 15007KT 20/05 A2986 RMK A01 T02040047  RH  036%=      5-min Rain = 0
KCL2 200013Z 16007KT 20/05 A2986 RMK A01 T02040047  RH  036%=      5-min Rain = 0
KCL2 200014Z 15007KT 20/05 A2986 RMK A01 T02040048  RH  036%=      5-min Rain = 0
KCL2 200015Z 15008KT 20/05 A2986 RMK A01 T02040047  RH  036%=      5-min Rain = 0
KCL2 200016Z 16007KT 20/05 A2986 RMK A01 T02040048  RH  036%=      5-min Rain = 0
KCL2 200017Z 16007KT 20/05 A2986 RMK A01 T02040048  RH  036%=      5-min Rain = 0
KCL2 200018Z 16007KT 20/05 A2986 RMK A01 T02030048  RH  036%=      5-min Rain = 0
KCL2 200019Z 16007KT 20/05 A2986 RMK A01 T02030048  RH  036%=      5-min Rain = 0
KCL2 200020Z 16007KT 20/05 A2986 RMK A01 T02030049  RH  036%=      5-min Rain = 0
KCL2 200021Z 15007KT 20/05 A2986 RMK A01 T02020048  RH  036%=      5-min Rain = 0
KCL2 200022Z 15007KT 20/05 A2986 RMK A01 T02020048  RH  036%=      5-min Rain = 0
KCL2 200023Z 15007KT 20/05 A2986 RMK A01 T02020049  RH  037%=      5-min Rain = 0
KCL2 200024Z 15007KT 20/05 A2986 RMK A01 T02010049  RH  037%=      5-min Rain = 0
KCL2 200025Z 15006KT 20/05 A2986 RMK A01 T02000049  RH  037%=      5-min Rain = 0
KCL2 200026Z 15006KT 20/05 A2986 RMK A01 T02000049  RH  037%=      5-min Rain = 0
KCL2 200027Z 15006KT 20/05 A2986 RMK A01 T01990049  RH  037%=      5-min Rain = 0
KCL2 200028Z 15006KT 20/05 A2986 RMK A01 T01980049  RH  037%=      5-min Rain = 0
KCL2 200029Z 15006KT 20/05 A2986 RMK A01 T01970048  RH  037%=      5-min Rain = 0
KCL2 200030Z 15006KT 20/05 A2986 RMK A01 T01970049  RH  038%=      5-min Rain = 0
KCL2 200031Z 15007KT 20/05 A2986 RMK A01 T01960050  RH  038%=      5-min Rain = 0
KCL2 200032Z 15006KT 20/05 A2986 RMK A01 T01960049  RH  038%=      5-min Rain = 0
KCL2 200033Z 15006KT 20/05 A2986 RMK A01 T01950050  RH  038%=      5-min Rain = 0
KCL2 200034Z 14006KT 20/05 A2986 RMK A01 T01950050  RH  038%=      5-min Rain = 0
KCL2 200035Z 14007KT 20/05 A2986 RMK A01 T01950050  RH  039%=      5-min Rain = 0
KCL2 200036Z 14007KT 19/05 A2986 RMK A01 T01940050  RH  039%=      5-min Rain = 0
KCL2 200037Z 14007KT 19/05 A2986 RMK A01 T01930050  RH  039%=      5-min Rain = 0
KCL2 200038Z 14007KT 19/05 A2986 RMK A01 T01920050  RH  039%=      5-min Rain = 0
KCL2 200039Z 14007KT 19/05 A2986 RMK A01 T01910051  RH  040%=      5-min Rain = 0
KCL2 200040Z 14007KT 19/05 A2986 RMK A01 T01900051  RH  040%=      5-min Rain = 0
KCL2 200041Z 14007KT 19/05 A2986 RMK A01 T01900051  RH  040%=      5-min Rain = 0
KCL2 200042Z 14007KT 19/05 A2986 RMK A01 T01900051  RH  040%=      5-min Rain = 0
KCL2 200043Z 14006KT 19/05 A2986 RMK A01 T01900051  RH  040%=      5-min Rain = 0
KCL2 200044Z 14007KT 19/05 A2986 RMK A01 T01890051  RH  040%=      5-min Rain = 0
KCL2 200045Z 15007KT 19/05 A2986 RMK A01 T01900052  RH  040%=      5-min Rain = 0
KCL2 200046Z 15007KT 19/05 A2986 RMK A01 T01890052  RH  040%=      5-min Rain = 0
KCL2 200047Z 14007KT 19/05 A2986 RMK A01 T01890052  RH  041%=      5-min Rain = 0
KCL2 200048Z 15007KT 19/05 A2986 RMK A01 T01880052  RH  041%=      5-min Rain = 0
KCL2 200049Z 15008KT 19/05 A2986 RMK A01 T01880053  RH  041%=      5-min Rain = 0
KCL2 200050Z 15007KT 19/05 A2986 RMK A01 T01880053  RH  041%=      5-min Rain = 0
KCL2 200051Z 15007KT 19/05 A2986 RMK A01 T01890053  RH  041%=      5-min Rain = 0
KCL2 200052Z 15007KT 19/05 A2987 RMK A01 T01880053  RH  041%=      5-min Rain = 0
KCL2 200053Z 15008KT 19/05 A2987 RMK A01 T01870053  RH  041%=      5-min Rain = 0
KCL2 200054Z 15008KT 19/05 A2987 RMK A01 T01880053  RH  041%=      5-min Rain = 0
KCL2 200055Z 16007KT 19/05 A2987 RMK A01 T01880054  RH  041%=      5-min Rain = 0
KCL2 200056Z 15007KT 19/05 A2987 RMK A01 T01880054  RH  041%=      5-min Rain = 0
KCL2 200057Z 15008KT 19/06 A2987 RMK A01 T01870055  RH  042%=      5-min Rain = 0
KCL2 200058Z 15009KT 19/06 A2987 RMK A01 T01870055  RH  042%=      5-min Rain = 0
KCL2 200059Z 15008KT 19/06 A2986 RMK A01 T01870055  RH  042%=      5-min Rain = 0
KCL2 200100Z 15008KT 19/06 A2987 RMK A01 T01870055  RH  042%=      5-min Rain = 0
KCL2 200101Z 15008KT 19/06 A2987 RMK A01 T01870056  RH  042%=      5-min Rain = 0
KCL2 200102Z 15008KT 19/06 A2987 RMK A01 T01870056  RH  042%=      5-min Rain = 0
KCL2 200103Z 15008KT 19/06 A2987 RMK A01 T01860056  RH  042%=      5-min Rain = 0
KCL2 200104Z 15007KT 19/06 A2987 RMK A01 T01860057  RH  043%=      5-min Rain = 0
KCL2 200105Z 16008KT 19/06 A2987 RMK A01 T01860056  RH  043%=      5-min Rain = 0
KCL2 200106Z 16007KT 19/06 A2987 RMK A01 T01860056  RH  043%=      5-min Rain = 0
KCL2 200107Z 15008KT 19/06 A2987 RMK A01 T01860057  RH  043%=      5-min Rain = 0
KCL2 200108Z 15009KT 19/06 A2987 RMK A01 T01850057  RH  043%=      5-min Rain = 0
KCL2 200109Z 15008KT 19/06 A2987 RMK A01 T01850057  RH  043%=      5-min Rain = 0
KCL2 200110Z 15009KT 19/06 A2987 RMK A01 T01850057  RH  043%=      5-min Rain = 0
KCL2 200111Z 15009KT 19/06 A2987 RMK A01 T01860058  RH  043%=      5-min Rain = 0
KCL2 200112Z 15008KT 19/06 A2987 RMK A01 T01850057  RH  043%=      5-min Rain = 0
KCL2 200113Z 15010KT 19/06 A2987 RMK A01 T01850057  RH  043%=      5-min Rain = 0
KCL2 200114Z 15009KT 19/06 A2987 RMK A01 T01850058  RH  043%=      5-min Rain = 0
KCL2 200115Z 15008KT 19/06 A2987 RMK A01 T01850058  RH  043%=      5-min Rain = 0
KCL2 200116Z 15008KT 19/06 A2987 RMK A01 T01860058  RH  043%=      5-min Rain = 0
KCL2 200117Z 15008KT 19/06 A2987 RMK A01 T01850059  RH  043%=      5-min Rain = 0
KCL2 200118Z 16007KT 19/06 A2987 RMK A01 T01850059  RH  044%=      5-min Rain = 0
KCL2 200119Z 16008KT 18/06 A2987 RMK A01 T01840059  RH  044%=      5-min Rain = 0
KCL2 200120Z 16008KT 18/06 A2987 RMK A01 T01830059  RH  044%=      5-min Rain = 0
KCL2 200121Z 16009KT 18/06 A2987 RMK A01 T01820059  RH  045%=      5-min Rain = 0
KCL2 200122Z 16008KT 18/06 A2987 RMK A01 T01820060  RH  045%=      5-min Rain = 0
KCL2 200123Z 16009KT 18/06 A2987 RMK A01 T01820060  RH  045%=      5-min Rain = 0
KCL2 200124Z 16008KT 18/06 A2987 RMK A01 T01830061  RH  045%=      5-min Rain = 0
KCL2 200125Z 16009KT 18/06 A2987 RMK A01 T01830061  RH  045%=      5-min Rain = 0
KCL2 200126Z 16009KT 18/06 A2987 RMK A01 T01830061  RH  045%=      5-min Rain = 0
KCL2 200127Z 16009KT 18/06 A2987 RMK A01 T01830062  RH  045%=      5-min Rain = 0
KCL2 200128Z 16009KT 18/06 A2987 RMK A01 T01830062  RH  045%=      5-min Rain = 0
KCL2 200129Z 17009KT 18/06 A2987 RMK A01 T01830063  RH  045%=      5-min Rain = 0
KCL2 200130Z 16011KT 18/06 A2987 RMK A01 T01830063  RH  046%=      5-min Rain = 0
KCL2 200131Z 16010KT 18/06 A2987 RMK A01 T01830064  RH  046%=      5-min Rain = 0
KCL2 200132Z 16009KT 18/06 A2987 RMK A01 T01840064  RH  046%=      5-min Rain = 0
KCL2 200133Z 16008KT 18/06 A2987 RMK A01 T01840064  RH  046%=      5-min Rain = 0
KCL2 200134Z 16007KT 18/06 A2987 RMK A01 T01820064  RH  046%=      5-min Rain = 0
KCL2 200135Z 16010KT 18/07 A2987 RMK A01 T01820065  RH  046%=      5-min Rain = 0
KCL2 200136Z 16010KT 18/07 A2987 RMK A01 T01830066  RH  046%=      5-min Rain = 0
KCL2 200137Z 16010KT 18/07 A2987 RMK A01 T01840066  RH  046%=      5-min Rain = 0
KCL2 200138Z 17010KT 19/07 A2987 RMK A01 T01850066  RH  046%=      5-min Rain = 0
KCL2 200139Z 16009KT 18/07 A2987 RMK A01 T01840066  RH  046%=      5-min Rain = 0
KCL2 200140Z 17010KT 18/07 A2987 RMK A01 T01830067  RH  046%=      5-min Rain = 0
KCL2 200141Z 16010KT 18/07 A2987 RMK A01 T01840067  RH  047%=      5-min Rain = 0
KCL2 200142Z 17010KT 18/07 A2987 RMK A01 T01840067  RH  046%=      5-min Rain = 0
KCL2 200143Z 16010KT 18/07 A2987 RMK A01 T01840067  RH  046%=      5-min Rain = 0
KCL2 200144Z 16010KT 18/07 A2987 RMK A01 T01840067  RH  046%=      5-min Rain = 0
KCL2 200145Z 16011KT 19/07 A2987 RMK A01 T01850068  RH  046%=      5-min Rain = 0
KCL2 200146Z 16009KT 19/07 A2987 RMK A01 T01850068  RH  046%=      5-min Rain = 0
KCL2 200147Z 16010KT 19/07 A2987 RMK A01 T01850068  RH  046%=      5-min Rain = 0
KCL2 200148Z 16011KT 19/07 A2987 RMK A01 T01850068  RH  046%=      5-min Rain = 0
KCL2 200149Z 16010KT 19/07 A2987 RMK A01 T01850068  RH  046%=      5-min Rain = 0
KCL2 200150Z 16011KT 19/07 A2987 RMK A01 T01850069  RH  046%=      5-min Rain = 0
KCL2 200151Z 16011KT 19/07 A2987 RMK A01 T01850068  RH  047%=      5-min Rain = 0
KCL2 200152Z 16011KT 19/07 A2987 RMK A01 T01850069  RH  047%=      5-min Rain = 0
KCL2 200153Z 16010KT 19/07 A2988 RMK A01 T01860069  RH  046%=      5-min Rain = 0
KCL2 200154Z 16010KT 19/07 A2988 RMK A01 T01850069  RH  047%=      5-min Rain = 0
KCL2 200155Z 16011KT 19/07 A2988 RMK A01 T01850069  RH  047%=      5-min Rain = 0
KCL2 200156Z 16010KT 19/07 A2987 RMK A01 T01850069  RH  047%=      5-min Rain = 0
KCL2 200157Z 16010G15KT 19/07 A2987 RMK A01 T01860069  RH  046%=      5-min Rain = 0
KCL2 200158Z 16011KT 19/07 A2987 RMK A01 T01860069  RH  046%=      5-min Rain = 0
KCL2 200159Z 16009KT 19/07 A2987 RMK A01 T01860069  RH  046%=      5-min Rain = 0
KCL2 200200Z 16012KT 19/07 A2987 RMK A01 T01860069  RH  047%=      5-min Rain = 0
KCL2 200201Z 16012KT 19/07 A2987 RMK A01 T01860069  RH  047%=      5-min Rain = 0
KCL2 200202Z 16014KT 19/07 A2987 RMK A01 T01870070  RH  046%=      5-min Rain = 0
KCL2 200203Z 16012KT 19/07 A2987 RMK A01 T01870070  RH  046%=      5-min Rain = 0
KCL2 200204Z 16013KT 19/07 A2987 RMK A01 T01870070  RH  046%=      5-min Rain = 0
KCL2 200205Z 16012KT 19/07 A2987 RMK A01 T01880070  RH  046%=      5-min Rain = 0
KCL2 200206Z 17012G17KT 19/07 A2987 RMK A01 T01870070  RH  046%=      5-min Rain = 0
KCL2 200207Z 16012KT 19/07 A2987 RMK A01 T01870070  RH  046%=      5-min Rain = 0
KCL2 200208Z 17011KT 19/07 A2987 RMK A01 T01870070  RH  047%=      5-min Rain = 0
KCL2 200209Z 16010KT 19/07 A2987 RMK A01 T01860070  RH  047%=      5-min Rain = 0
KCL2 200210Z 17011KT 19/07 A2987 RMK A01 T01850070  RH  047%=      5-min Rain = 0
KCL2 200211Z 16015KT 19/07 A2987 RMK A01 T01850070  RH  047%=      5-min Rain = 0
KCL2 200212Z 16013G18KT 19/07 A2987 RMK A01 T01860071  RH  047%=      5-min Rain = 0
KCL2 200213Z 16014KT 19/07 A2987 RMK A01 T01860071  RH  047%=      5-min Rain = 0
KCL2 200214Z 17012G17KT 19/07 A2987 RMK A01 T01870071  RH  047%=      5-min Rain = 0
KCL2 200215Z 16011KT 19/07 A2987 RMK A01 T01870071  RH  047%=      5-min Rain = 0
KCL2 200216Z 16012KT 19/07 A2987 RMK A01 T01860071  RH  047%=      5-min Rain = 0
KCL2 200217Z 16012KT 19/07 A2987 RMK A01 T01850071  RH  047%=      5-min Rain = 0
KCL2 200218Z 16011KT 19/07 A2987 RMK A01 T01850071  RH  047%=      5-min Rain = 0
KCL2 200219Z 16013KT 19/07 A2987 RMK A01 T01850071  RH  047%=      5-min Rain = 0
KCL2 200220Z 16012KT 19/07 A2987 RMK A01 T01850071  RH  047%=      5-min Rain = 0
KCL2 200221Z 16012KT 19/07 A2987 RMK A01 T01850071  RH  047%=      5-min Rain = 0
KCL2 200222Z 16013KT 19/07 A2987 RMK A01 T01850071  RH  048%=      5-min Rain = 0
KCL2 200223Z 16010KT 18/07 A2987 RMK A01 T01840071  RH  048%=      5-min Rain = 0
KCL2 200224Z 17013KT 18/07 A2987 RMK A01 T01840072  RH  048%=      5-min Rain = 0
KCL2 200225Z 16011KT 18/07 A2987 RMK A01 T01830072  RH  048%=      5-min Rain = 0
KCL2 200226Z 16012KT 18/07 A2987 RMK A01 T01830071  RH  048%=      5-min Rain = 0
KCL2 200227Z 17010KT 18/07 A2987 RMK A01 T01830072  RH  048%=      5-min Rain = 0
KCL2 200228Z 16010KT 18/07 A2987 RMK A01 T01820072  RH  049%=      5-min Rain = 0
KCL2 200229Z 17011KT 18/07 A2987 RMK A01 T01800071  RH  049%=      5-min Rain = 0
KCL2 200230Z 17013KT 18/07 A2987 RMK A01 T01800072  RH  049%=      5-min Rain = 0
KCL2 200231Z 17013KT 18/07 A2987 RMK A01 T01800072  RH  049%=      5-min Rain = 0
KCL2 200232Z 16012KT 18/07 A2987 RMK A01 T01810072  RH  049%=      5-min Rain = 0
KCL2 200233Z 17011KT 18/07 A2987 RMK A01 T01810072  RH  049%=      5-min Rain = 0
KCL2 200234Z 17013KT 18/07 A2987 RMK A01 T01810073  RH  049%=      5-min Rain = 0
KCL2 200235Z 17011KT 18/07 A2987 RMK A01 T01820073  RH  049%=      5-min Rain = 0
KCL2 200236Z 17015KT 18/07 A2987 RMK A01 T01820073  RH  049%=      5-min Rain = 0
KCL2 200237Z 17012KT 18/07 A2987 RMK A01 T01810073  RH  049%=      5-min Rain = 0
KCL2 200238Z 17012KT 18/07 A2987 RMK A01 T01810073  RH  049%=      5-min Rain = 0
KCL2 200239Z 17011KT 18/07 A2987 RMK A01 T01810073  RH  049%=      5-min Rain = 0
KCL2 200240Z 16010KT 18/07 A2987 RMK A01 T01800073  RH  050%=      5-min Rain = 0
KCL2 200241Z 17011KT 18/07 A2987 RMK A01 T01800074  RH  050%=      5-min Rain = 0
KCL2 200242Z 17012KT 18/07 A2987 RMK A01 T01790073  RH  050%=      5-min Rain = 0
KCL2 200243Z 17012KT 18/07 A2987 RMK A01 T01790073  RH  050%=      5-min Rain = 0
KCL2 200244Z 17011KT 18/07 A2987 RMK A01 T01790073  RH  050%=      5-min Rain = 0
KCL2 200245Z 17012KT 18/07 A2987 RMK A01 T01790074  RH  050%=      5-min Rain = 0
KCL2 200246Z 17012KT 18/07 A2987 RMK A01 T01790074  RH  050%=      5-min Rain = 0
KCL2 200247Z 17012KT 18/07 A2987 RMK A01 T01790074  RH  050%=      5-min Rain = 0
KCL2 200248Z 17012KT 18/07 A2987 RMK A01 T01790074  RH  050%=      5-min Rain = 0
KCL2 200249Z 17010KT 18/07 A2987 RMK A01 T01790074  RH  050%=      5-min Rain = 0
KCL2 200250Z 17009KT 18/07 A2987 RMK A01 T01780074  RH  050%=      5-min Rain = 0
KCL2 200251Z 17012KT 18/07 A2988 RMK A01 T01780074  RH  051%=      5-min Rain = 0
KCL2 200252Z 17012KT 18/07 A2988 RMK A01 T01770074  RH  051%=      5-min Rain = 0
KCL2 200253Z 17011KT 18/08 A2988 RMK A01 T01780075  RH  051%=      5-min Rain = 0
KCL2 200254Z 17013KT 18/08 A2988 RMK A01 T01770075  RH  051%=      5-min Rain = 0
KCL2 200255Z 17011KT 18/07 A2988 RMK A01 T01770074  RH  051%=      5-min Rain = 0
KCL2 200256Z 18010KT 18/08 A2988 RMK A01 T01770075  RH  051%=      5-min Rain = 0
KCL2 200257Z 17011KT 18/08 A2988 RMK A01 T01770075  RH  051%=      5-min Rain = 0
KCL2 200258Z 17012KT 18/08 A2988 RMK A01 T01760075  RH  052%=      5-min Rain = 0
KCL2 200259Z 17011KT 18/08 A2988 RMK A01 T01760075  RH  052%=      5-min Rain = 0
KCL2 200300Z 17012KT 18/08 A2988 RMK A01 T01760075  RH  052%=      5-min Rain = 0
KCL2 200301Z 17011KT 18/08 A2988 RMK A01 T01760076  RH  052%=      5-min Rain = 0
KCL2 200302Z 17012KT 18/08 A2988 RMK A01 T01760076  RH  052%=      5-min Rain = 0
KCL2 200303Z 17012KT 18/08 A2988 RMK A01 T01760076  RH  052%=      5-min Rain = 0
KCL2 200304Z 17010G15KT 18/08 A2988 RMK A01 T01770076  RH  052%=      5-min Rain = 0
KCL2 200305Z 17011KT 18/08 A2988 RMK A01 T01760077  RH  052%=      5-min Rain = 0
KCL2 200306Z 17011KT 18/08 A2988 RMK A01 T01760077  RH  052%=      5-min Rain = 0
KCL2 200307Z 17012KT 18/08 A2988 RMK A01 T01760077  RH  052%=      5-min Rain = 0
KCL2 200308Z 17012KT 18/08 A2988 RMK A01 T01760077  RH  052%=      5-min Rain = 0
KCL2 200309Z 17012KT 18/08 A2988 RMK A01 T01760077  RH  052%=      5-min Rain = 0
KCL2 200310Z 17011KT 18/08 A2988 RMK A01 T01760078  RH  053%=      5-min Rain = 0
KCL2 200311Z 17011KT 18/08 A2988 RMK A01 T01750078  RH  053%=      5-min Rain = 0
KCL2 200312Z 17011KT 18/08 A2988 RMK A01 T01750078  RH  053%=      5-min Rain = 0
KCL2 200313Z 17011KT 18/08 A2988 RMK A01 T01750079  RH  053%=      5-min Rain = 0
KCL2 200314Z 17011KT 18/08 A2988 RMK A01 T01750079  RH  053%=      5-min Rain = 0
KCL2 200315Z 17011KT 17/08 A2988 RMK A01 T01740079  RH  053%=      5-min Rain = 0
KCL2 200316Z 17012KT 17/08 A2988 RMK A01 T01740079  RH  054%=      5-min Rain = 0
KCL2 200317Z 17011KT 17/08 A2988 RMK A01 T01740080  RH  054%=      5-min Rain = 0
KCL2 200318Z 18014KT 17/08 A2988 RMK A01 T01740080  RH  054%=      5-min Rain = 0
KCL2 200319Z 17011KT 17/08 A2988 RMK A01 T01740080  RH  054%=      5-min Rain = 0
KCL2 200320Z 18012KT 18/08 A2988 RMK A01 T01750080  RH  054%=      5-min Rain = 0
KCL2 200321Z 18012KT 17/08 A2988 RMK A01 T01740080  RH  054%=      5-min Rain = 0
KCL2 200322Z 18011KT 17/08 A2988 RMK A01 T01740081  RH  054%=      5-min Rain = 0
KCL2 200323Z 18012KT 17/08 A2988 RMK A01 T01740081  RH  054%=      5-min Rain = 0
KCL2 200324Z 18011KT 17/08 A2988 RMK A01 T01740081  RH  054%=      5-min Rain = 0
KCL2 200325Z 17012KT 17/08 A2988 RMK A01 T01740081  RH  054%=      5-min Rain = 0
KCL2 200326Z 17012KT 17/08 A2988 RMK A01 T01740081  RH  055%=      5-min Rain = 0
KCL2 200327Z 17011KT 17/08 A2988 RMK A01 T01740081  RH  055%=      5-min Rain = 0
KCL2 200328Z 17012KT 17/08 A2988 RMK A01 T01740082  RH  055%=      5-min Rain = 0
KCL2 200329Z 18013KT 17/08 A2988 RMK A01 T01740082  RH  055%=      5-min Rain = 0
KCL2 200330Z 18012KT 17/08 A2988 RMK A01 T01730082  RH  055%=      5-min Rain = 0
KCL2 200331Z 17012KT 17/08 A2988 RMK A01 T01730082  RH  055%=      5-min Rain = 0
KCL2 200332Z 17010KT 17/08 A2988 RMK A01 T01730082  RH  055%=      5-min Rain = 0
KCL2 200333Z 17013KT 17/08 A2988 RMK A01 T01720082  RH  055%=      5-min Rain = 0
KCL2 200334Z 17012KT 17/08 A2988 RMK A01 T01730083  RH  056%=      5-min Rain = 0
KCL2 200335Z 17013KT 17/08 A2988 RMK A01 T01720083  RH  056%=      5-min Rain = 0
KCL2 200336Z 17011G16KT 17/08 A2988 RMK A01 T01720083  RH  056%=      5-min Rain = 0
KCL2 200337Z 17012KT 17/08 A2988 RMK A01 T01720083  RH  056%=      5-min Rain = 0
KCL2 200338Z 17010KT 17/08 A2988 RMK A01 T01720083  RH  056%=      5-min Rain = 0
KCL2 200339Z 17010KT 17/08 A2988 RMK A01 T01710083  RH  056%=      5-min Rain = 0
KCL2 200340Z 17012KT 17/08 A2988 RMK A01 T01700083  RH  056%=      5-min Rain = 0
KCL2 200341Z 18012KT 17/08 A2988 RMK A01 T01710083  RH  056%=      5-min Rain = 0
KCL2 200342Z 18012G17KT 17/08 A2988 RMK A01 T01710084  RH  056%=      5-min Rain = 0
KCL2 200343Z 18012KT 17/08 A2988 RMK A01 T01710084  RH  057%=      5-min Rain = 0
KCL2 200344Z 17011KT 17/08 A2988 RMK A01 T01700084  RH  057%=      5-min Rain = 0
KCL2 200345Z 18011KT 17/08 A2988 RMK A01 T01690084  RH  057%=      5-min Rain = 0
KCL2 200346Z 17011KT 17/08 A2988 RMK A01 T01690084  RH  057%=      5-min Rain = 0
KCL2 200347Z 18011KT 17/08 A2988 RMK A01 T01700084  RH  057%=      5-min Rain = 0
KCL2 200348Z 17012KT 17/08 A2988 RMK A01 T01690084  RH  057%=      5-min Rain = 0
KCL2 200349Z 18013KT 17/09 A2988 RMK A01 T01690085  RH  057%=      5-min Rain = 0
KCL2 200350Z 17013KT 17/09 A2988 RMK A01 T01690085  RH  057%=      5-min Rain = 0
KCL2 200351Z 17012G17KT 17/09 A2988 RMK A01 T01700085  RH  057%=      5-min Rain = 0
KCL2 200352Z 18011KT 17/09 A2988 RMK A01 T01700086  RH  057%=      5-min Rain = 0
KCL2 200353Z 17014G19KT 17/09 A2988 RMK A01 T01690086  RH  058%=      5-min Rain = 0
KCL2 200354Z 18013KT 17/09 A2988 RMK A01 T01700086  RH  058%=      5-min Rain = 0
KCL2 200355Z 18012KT 17/09 A2988 RMK A01 T01700086  RH  058%=      5-min Rain = 0
KCL2 200356Z 18011KT 17/09 A2988 RMK A01 T01700086  RH  057%=      5-min Rain = 0
KCL2 200357Z 18015KT 17/09 A2988 RMK A01 T01700086  RH  058%=      5-min Rain = 0
KCL2 200358Z 18014KT 17/09 A2988 RMK A01 T01690086  RH  058%=      5-min Rain = 0
KCL2 200359Z 18015G20KT 17/09 A2988 RMK A01 T01700087  RH  058%=      5-min Rain = 0
KCL2 200400Z 18014KT 17/09 A2988 RMK A01 T01710087  RH  058%=      5-min Rain = 0
KCL2 200401Z 18012G20KT 17/09 A2988 RMK A01 T01710087  RH  058%=      5-min Rain = 0
KCL2 200402Z 18014KT 17/09 A2988 RMK A01 T01720087  RH  057%=      5-min Rain = 0
KCL2 200403Z 18013KT 17/09 A2988 RMK A01 T01720087  RH  057%=      5-min Rain = 0
KCL2 200404Z 18014KT 17/09 A2988 RMK A01 T01720087  RH  057%=      5-min Rain = 0
KCL2 200405Z 18012KT 17/09 A2988 RMK A01 T01720088  RH  058%=      5-min Rain = 0
KCL2 200406Z 18015G23KT 17/09 A2988 RMK A01 T01720088  RH  058%=      5-min Rain = 0
KCL2 200407Z 18014G20KT 17/09 A2988 RMK A01 T01720088  RH  058%=      5-min Rain = 0
KCL2 200408Z 18016KT 17/09 A2988 RMK A01 T01720088  RH  058%=      5-min Rain = 0
KCL2 200409Z 18015KT 17/09 A2988 RMK A01 T01720088  RH  058%=      5-min Rain = 0
KCL2 200410Z 18016G22KT 17/09 A2988 RMK A01 T01730088  RH  057%=      5-min Rain = 0
KCL2 200411Z 18016KT 17/09 A2988 RMK A01 T01730088  RH  057%=      5-min Rain = 0
KCL2 200412Z 18017KT 17/09 A2988 RMK A01 T01730088  RH  057%=      5-min Rain = 0
KCL2 200413Z 17013G18KT 17/09 A2988 RMK A01 T01730088  RH  057%=      5-min Rain = 0
KCL2 200414Z 18016KT 17/09 A2988 RMK A01 T01730088  RH  058%=      5-min Rain = 0
KCL2 200415Z 18014G19KT 17/09 A2988 RMK A01 T01730089  RH  058%=      5-min Rain = 0
KCL2 200416Z 18012G18KT 17/09 A2988 RMK A01 T01720089  RH  058%=      5-min Rain = 0
KCL2 200417Z 18014KT 17/09 A2988 RMK A01 T01720089  RH  058%=      5-min Rain = 0
KCL2 200418Z 18014KT 17/09 A2988 RMK A01 T01720089  RH  058%=      5-min Rain = 0
KCL2 200419Z 18015G20KT 17/09 A2988 RMK A01 T01720089  RH  058%=      5-min Rain = 0
KCL2 200420Z 18017KT 17/09 A2988 RMK A01 T01710089  RH  058%=      5-min Rain = 0
KCL2 200421Z 18013G19KT 17/09 A2988 RMK A01 T01720089  RH  058%=      5-min Rain = 0
KCL2 200422Z 18014G19KT 17/09 A2988 RMK A01 T01710089  RH  059%=      5-min Rain = 0
KCL2 200423Z 18015G21KT 17/09 A2988 RMK A01 T01710090  RH  059%=      5-min Rain = 0
KCL2 200424Z 18012KT 17/09 A2988 RMK A01 T01710090  RH  059%=      5-min Rain = 0
KCL2 200425Z 18015KT 17/09 A2988 RMK A01 T01710090  RH  059%=      5-min Rain = 0
KCL2 200426Z 18016G21KT 17/09 A2988 RMK A01 T01700090  RH  059%=      5-min Rain = 0
KCL2 200427Z 18013KT 17/09 A2988 RMK A01 T01700090  RH  059%=      5-min Rain = 0
KCL2 200428Z 18014KT 17/09 A2988 RMK A01 T01700090  RH  059%=      5-min Rain = 0
KCL2 200429Z 18017KT 17/09 A2988 RMK A01 T01700090  RH  060%=      5-min Rain = 0
KCL2 200430Z 18014KT 17/09 A2988 RMK A01 T01690091  RH  060%=      5-min Rain = 0
KCL2 200431Z 18014KT 17/09 A2988 RMK A01 T01690090  RH  060%=      5-min Rain = 0
KCL2 200432Z 18014KT 17/09 A2988 RMK A01 T01690091  RH  060%=      5-min Rain = 0
KCL2 200433Z 18014KT 17/09 A2988 RMK A01 T01690091  RH  060%=      5-min Rain = 0
KCL2 200434Z 17015KT 17/09 A2988 RMK A01 T01680091  RH  060%=      5-min Rain = 0
KCL2 200435Z 18015G20KT 17/09 A2988 RMK A01 T01680092  RH  060%=      5-min Rain = 0
KCL2 200436Z 17014KT 17/09 A2988 RMK A01 T01680091  RH  060%=      5-min Rain = 0
KCL2 200437Z 18014KT 17/09 A2988 RMK A01 T01680091  RH  060%=      5-min Rain = 0
KCL2 200438Z 18014KT 17/09 A2988 RMK A01 T01670091  RH  061%=      5-min Rain = 0
KCL2 200439Z 17012KT 17/09 A2988 RMK A01 T01670091  RH  061%=      5-min Rain = 0
KCL2 200440Z 18013KT 17/09 A2988 RMK A01 T01660091  RH  061%=      5-min Rain = 0
KCL2 200441Z 18013KT 17/09 A2988 RMK A01 T01660092  RH  061%=      5-min Rain = 0
KCL2 200442Z 18012KT 17/09 A2988 RMK A01 T01660092  RH  062%=      5-min Rain = 0
KCL2 200443Z 17012KT 17/09 A2988 RMK A01 T01650092  RH  062%=      5-min Rain = 0
KCL2 200444Z 18014KT 17/09 A2988 RMK A01 T01650092  RH  062%=      5-min Rain = 0
KCL2 200445Z 18012KT 16/09 A2988 RMK A01 T01640092  RH  062%=      5-min Rain = 0
KCL2 200446Z 18013KT 16/09 A2988 RMK A01 T01640092  RH  062%=      5-min Rain = 0
KCL2 200447Z 18013KT 16/09 A2988 RMK A01 T01640092  RH  062%=      5-min Rain = 0
KCL2 200448Z 18013KT 17/09 A2988 RMK A01 T01650093  RH  062%=      5-min Rain = 0
KCL2 200449Z 18012KT 16/09 A2988 RMK A01 T01640092  RH  062%=      5-min Rain = 0
KCL2 200450Z 17013KT 16/09 A2988 RMK A01 T01640093  RH  063%=      5-min Rain = 0
KCL2 200451Z 18011G16KT 16/09 A2988 RMK A01 T01630093  RH  063%=      5-min Rain = 0
KCL2 200452Z 18011KT 16/09 A2988 RMK A01 T01630093  RH  063%=      5-min Rain = 0
KCL2 200453Z 18011KT 16/09 A2988 RMK A01 T01630093  RH  063%=      5-min Rain = 0
KCL2 200454Z 18011KT 16/09 A2988 RMK A01 T01630093  RH  063%=      5-min Rain = 0
KCL2 200455Z 18011KT 16/09 A2988 RMK A01 T01630094  RH  064%=      5-min Rain = 0
KCL2 200456Z 18010KT 16/09 A2988 RMK A01 T01630093  RH  064%=      5-min Rain = 0
KCL2 200457Z 18014KT 16/09 A2988 RMK A01 T01630094  RH  064%=      5-min Rain = 0
KCL2 200458Z 18012KT 16/09 A2988 RMK A01 T01630094  RH  064%=      5-min Rain = 0
KCL2 200459Z 18011KT 16/09 A2988 RMK A01 T01630094  RH  064%=      5-min Rain = 0
KCL2 200500Z 18013KT 16/09 A2988 RMK A01 T01630094  RH  064%=      5-min Rain = 0
KCL2 200501Z 17012KT 16/10 A2988 RMK A01 T01630095  RH  064%=      5-min Rain = 0
KCL2 200502Z 18013G20KT 16/10 A2988 RMK A01 T01630095  RH  064%=      5-min Rain = 0
KCL2 200503Z 18013KT 16/10 A2988 RMK A01 T01630095  RH  064%=      5-min Rain = 0
KCL2 200504Z 18011KT 16/10 A2988 RMK A01 T01630095  RH  064%=      5-min Rain = 0
KCL2 200505Z 18011KT 16/10 A2988 RMK A01 T01630095  RH  064%=      5-min Rain = 0
KCL2 200506Z 18011KT 16/10 A2988 RMK A01 T01620095  RH  064%=      5-min Rain = 0
KCL2 200507Z 18011KT 16/10 A2988 RMK A01 T01620095  RH  065%=      5-min Rain = 0
KCL2 200508Z 18011KT 16/10 A2988 RMK A01 T01610095  RH  065%=      5-min Rain = 0
KCL2 200509Z 17012KT 16/10 A2988 RMK A01 T01610095  RH  065%=      5-min Rain = 0
KCL2 200510Z 18011KT 16/10 A2988 RMK A01 T01610095  RH  065%=      5-min Rain = 0
KCL2 200511Z 18012KT 16/10 A2988 RMK A01 T01610095  RH  065%=      5-min Rain = 0
KCL2 200512Z 18010KT 16/10 A2988 RMK A01 T01610095  RH  065%=      5-min Rain = 0
KCL2 200513Z 17012KT 16/10 A2988 RMK A01 T01610096  RH  065%=      5-min Rain = 0
KCL2 200514Z 17010KT 16/10 A2988 RMK A01 T01600096  RH  066%=      5-min Rain = 0
KCL2 200515Z 17009KT 16/10 A2988 RMK A01 T01600096  RH  066%=      5-min Rain = 0
KCL2 200516Z 17011KT 16/10 A2988 RMK A01 T01590096  RH  066%=      5-min Rain = 0
KCL2 200517Z 17011KT 16/10 A2988 RMK A01 T01580096  RH  066%=      5-min Rain = 0
KCL2 200518Z 17011KT 16/10 A2988 RMK A01 T01580096  RH  066%=      5-min Rain = 0
KCL2 200519Z 17010KT 16/10 A2988 RMK A01 T01580095  RH  066%=      5-min Rain = 0
KCL2 200520Z 17010KT 16/10 A2988 RMK A01 T01570096  RH  067%=      5-min Rain = 0
KCL2 200521Z 17011KT 16/10 A2988 RMK A01 T01570096  RH  067%=      5-min Rain = 0
KCL2 200522Z 17010KT 16/10 A2988 RMK A01 T01560095  RH  067%=      5-min Rain = 0
KCL2 200523Z 17011KT 16/10 A2988 RMK A01 T01560095  RH  067%=      5-min Rain = 0
KCL2 200524Z 17010KT 16/10 A2988 RMK A01 T01570096  RH  067%=      5-min Rain = 0
KCL2 200525Z 17011KT 16/10 A2988 RMK A01 T01560095  RH  067%=      5-min Rain = 0
KCL2 200526Z 17010KT 16/10 A2988 RMK A01 T01550095  RH  067%=      5-min Rain = 0
KCL2 200527Z 17013KT 16/10 A2988 RMK A01 T01550096  RH  068%=      5-min Rain = 0
KCL2 200528Z 18011KT 16/10 A2988 RMK A01 T01550096  RH  068%=      5-min Rain = 0
KCL2 200529Z 17013KT 16/10 A2988 RMK A01 T01550096  RH  068%=      5-min Rain = 0
KCL2 200530Z 17011KT 16/10 A2988 RMK A01 T01550095  RH  068%=      5-min Rain = 0
KCL2 200531Z 17012KT 15/10 A2988 RMK A01 T01540095  RH  068%=      5-min Rain = 0
KCL2 200532Z 17012KT 15/10 A2988 RMK A01 T01540095  RH  068%=      5-min Rain = 0
KCL2 200533Z 17013KT 15/10 A2988 RMK A01 T01540096  RH  068%=      5-min Rain = 0
KCL2 200534Z 18012G17KT 15/10 A2988 RMK A01 T01540096  RH  068%=      5-min Rain = 0
KCL2 200535Z 18014KT 15/10 A2988 RMK A01 T01540096  RH  068%=      5-min Rain = 0
KCL2 200536Z 18013KT 15/10 A2988 RMK A01 T01540096  RH  068%=      5-min Rain = 0
KCL2 200537Z 18013KT 15/10 A2987 RMK A01 T01540096  RH  069%=      5-min Rain = 0
KCL2 200538Z 18013KT 15/10 A2987 RMK A01 T01540096  RH  069%=      5-min Rain = 0
KCL2 200539Z 18015KT 15/10 A2987 RMK A01 T01540096  RH  068%=      5-min Rain = 0
KCL2 200540Z 18013KT 15/10 A2987 RMK A01 T01540096  RH  069%=      5-min Rain = 0
KCL2 200541Z 17014KT 15/10 A2987 RMK A01 T01540096  RH  068%=      5-min Rain = 0
KCL2 200542Z 18013KT 15/10 A2987 RMK A01 T01540096  RH  068%=      5-min Rain = 0
KCL2 200543Z 17012KT 15/10 A2987 RMK A01 T01540096  RH  068%=      5-min Rain = 0
KCL2 200544Z 17012KT 15/10 A2987 RMK A01 T01540096  RH  068%=      5-min Rain = 0
KCL2 200545Z 17014KT 15/10 A2987 RMK A01 T01530096  RH  069%=      5-min Rain = 0
KCL2 200546Z 17012KT 15/10 A2987 RMK A01 T01530096  RH  069%=      5-min Rain = 0
KCL2 200547Z 17014KT 15/10 A2987 RMK A01 T01520095  RH  069%=      5-min Rain = 0
KCL2 200548Z 17013G18KT 15/10 A2987 RMK A01 T01520095  RH  069%=      5-min Rain = 0
KCL2 200549Z 17014KT 15/10 A2987 RMK A01 T01520095  RH  069%=      5-min Rain = 0
KCL2 200550Z 18014KT 15/10 A2987 RMK A01 T01520095  RH  069%=      5-min Rain = 0
KCL2 200551Z 17014KT 15/10 A2987 RMK A01 T01520095  RH  069%=      5-min Rain = 0
KCL2 200552Z 18014KT 15/10 A2987 RMK A01 T01510095  RH  069%=      5-min Rain = 0
KCL2 200553Z 18017KT 15/10 A2987 RMK A01 T01510095  RH  069%=      5-min Rain = 0
KCL2 200554Z 17013G18KT 15/10 A2987 RMK A01 T01510095  RH  069%=      5-min Rain = 0
KCL2 200555Z 17015KT 15/10 A2987 RMK A01 T01510095  RH  069%=      5-min Rain = 0
KCL2 200556Z 17013G18KT 15/09 A2987 RMK A01 T01510094  RH  069%=      5-min Rain = 0
KCL2 200557Z 17013KT 15/09 A2987 RMK A01 T01510094  RH  069%=      5-min Rain = 0
KCL2 200558Z 17014KT 15/09 A2987 RMK A01 T01500094  RH  069%=      5-min Rain = 0
KCL2 200559Z 17013G18KT 15/09 A2987 RMK A01 T01500093  RH  069%=      5-min Rain = 0

Page generated in 0.0718 seconds.